Time,TemperatureF,DewpointF,PressureIn,WindDirection,WindDirectionDegrees,WindSpeedMPH,WindSpeedGustMPH,Humidity,HourlyPrecipIn,Conditions,Clouds,dailyrainin,SoftwareType,DateUTC
2013-08-22 00:00:00,64.3,61.0,29.99,SW,229,0.0,0.0,89,0.00,,,0.00,Wunderground v.1.15,2013-08-22 04:00:00,
2013-08-22 00:01:00,64.3,61.0,29.99,SW,229,0.0,0.0,89,0.00,,,0.00,Wunderground v.1.15,2013-08-22 04:01:00,
2013-08-22 00:02:00,64.3,61.0,29.99,SW,229,0.0,0.0,89,0.00,,,0.00,Wunderground v.1.15,2013-08-22 04:02:00,
2013-08-22 00:05:00,64.3,61.0,29.99,SW,229,0.0,0.0,89,0.00,,,0.00,Wunderground v.1.15,2013-08-22 04:05:00,
2013-08-22 00:07:00,64.2,61.2,29.99,SW,229,0.0,0.0,90,0.00,,,0.00,Wunderground v.1.15,2013-08-22 04:07:00,
2013-08-22 00:08:00,64.2,61.2,29.99,SW,229,0.0,0.0,90,0.00,,,0.00,Wunderground v.1.15,2013-08-22 04:08:00,
2013-08-22 00:10:00,64.2,61.2,29.99,SW,229,0.0,0.0,90,0.00,,,0.00,Wunderground v.1.15,2013-08-22 04:10:00,
2013-08-22 00:15:00,64.1,61.1,29.99,SW,229,0.0,0.0,90,0.00,,,0.00,Wunderground v.1.15,2013-08-22 04:15:00,
2013-08-22 00:16:00,64.1,61.1,29.99,SW,229,0.0,0.0,90,0.00,,,0.00,Wunderground v.1.15,2013-08-22 04:16:00,
2013-08-22 00:18:00,64.1,61.1,29.99,SW,229,0.0,0.0,90,0.00,,,0.00,Wunderground v.1.15,2013-08-22 04:18:00,
2013-08-22 00:21:00,64.0,61.0,29.99,SW,229,0.0,0.0,90,0.00,,,0.00,Wunderground v.1.15,2013-08-22 04:21:00,
2013-08-22 00:22:00,64.0,61.0,29.99,SW,229,0.0,0.0,90,0.00,,,0.00,Wunderground v.1.15,2013-08-22 04:22:00,
2013-08-22 00:23:00,64.0,61.0,29.99,SW,229,0.0,0.0,90,0.00,,,0.00,Wunderground v.1.15,2013-08-22 04:23:00,
2013-08-22 00:24:00,63.9,60.9,29.99,SW,229,0.0,0.0,90,0.00,,,0.00,Wunderground v.1.15,2013-08-22 04:24:00,
2013-08-22 00:27:00,63.8,61.1,29.99,SW,229,0.0,0.0,91,0.00,,,0.00,Wunderground v.1.15,2013-08-22 04:27:00,
2013-08-22 00:29:00,63.8,61.1,29.99,SW,229,0.0,0.0,91,0.00,,,0.00,Wunderground v.1.15,2013-08-22 04:29:00,
2013-08-22 00:30:00,63.8,61.1,29.99,SW,229,0.0,0.0,91,0.00,,,0.00,Wunderground v.1.15,2013-08-22 04:30:00,
2013-08-22 00:31:00,63.8,61.4,29.99,SW,229,0.0,0.0,92,0.00,,,0.00,Wunderground v.1.15,2013-08-22 04:31:00,
2013-08-22 00:33:00,63.8,61.4,29.99,SW,229,0.0,0.0,92,0.00,,,0.00,Wunderground v.1.15,2013-08-22 04:33:00,
2013-08-22 00:36:00,63.8,61.4,29.99,SW,229,0.0,0.0,92,0.00,,,0.00,Wunderground v.1.15,2013-08-22 04:36:00,
2013-08-22 00:37:00,63.8,61.4,29.99,South,188,0.0,0.0,92,0.00,,,0.00,Wunderground v.1.15,2013-08-22 04:37:00,
2013-08-22 00:38:00,63.8,61.4,29.99,SSW,211,0.0,0.0,92,0.00,,,0.00,Wunderground v.1.15,2013-08-22 04:38:00,
2013-08-22 00:40:00,63.8,61.4,29.99,WNW,287,0.0,0.0,92,0.00,,,0.00,Wunderground v.1.15,2013-08-22 04:40:00,
2013-08-22 00:43:00,63.9,61.5,29.99,SW,227,0.0,0.0,92,0.00,,,0.00,Wunderground v.1.15,2013-08-22 04:43:00,
2013-08-22 00:45:00,63.9,61.5,29.99,SW,227,0.0,0.0,92,0.00,,,0.00,Wunderground v.1.15,2013-08-22 04:45:00,
2013-08-22 00:46:00,64.0,61.6,29.99,SW,227,0.0,0.0,92,0.00,,,0.00,Wunderground v.1.15,2013-08-22 04:46:00,
2013-08-22 00:48:00,64.0,61.6,29.99,SW,227,0.0,0.0,92,0.00,,,0.00,Wunderground v.1.15,2013-08-22 04:48:00,
2013-08-22 00:49:00,64.0,61.6,29.99,WNW,285,0.0,0.0,92,0.00,,,0.00,Wunderground v.1.15,2013-08-22 04:49:00,
2013-08-22 00:51:00,64.1,61.7,29.99,WNW,285,0.0,0.0,92,0.00,,,0.00,Wunderground v.1.15,2013-08-22 04:51:00,
2013-08-22 00:52:00,64.1,61.7,29.99,WNW,285,0.0,0.0,92,0.00,,,0.00,Wunderground v.1.15,2013-08-22 04:52:00,
2013-08-22 00:54:00,64.2,61.5,29.99,SE,130,0.0,0.0,91,0.00,,,0.00,Wunderground v.1.15,2013-08-22 04:54:00,
2013-08-22 00:56:00,64.2,61.5,29.99,South,173,0.0,0.0,91,0.00,,,0.00,Wunderground v.1.15,2013-08-22 04:56:00,
2013-08-22 00:57:00,64.3,61.6,29.99,South,173,0.0,0.0,91,0.00,,,0.00,Wunderground v.1.15,2013-08-22 04:57:00,
2013-08-22 00:58:00,64.2,61.5,29.99,South,173,0.0,0.0,91,0.00,,,0.00,Wunderground v.1.15,2013-08-22 04:58:00,
2013-08-22 00:59:00,64.3,61.6,29.99,South,173,0.0,0.0,91,0.00,,,0.00,Wunderground v.1.15,2013-08-22 04:59:00,
2013-08-22 01:00:00,64.2,61.5,29.99,South,173,0.0,0.0,91,0.00,,,0.00,Wunderground v.1.15,2013-08-22 05:00:00,
2013-08-22 01:03:00,64.3,61.9,29.99,South,173,0.0,0.0,92,0.00,,,0.00,Wunderground v.1.15,2013-08-22 05:03:00,
2013-08-22 01:05:00,64.3,61.6,29.99,South,173,0.0,0.0,91,0.00,,,0.00,Wunderground v.1.15,2013-08-22 05:05:00,
2013-08-22 01:06:00,64.3,61.6,29.99,South,173,0.0,0.0,91,0.00,,,0.00,Wunderground v.1.15,2013-08-22 05:06:00,
2013-08-22 01:07:00,64.3,61.6,29.99,South,173,0.0,0.0,91,0.00,,,0.00,Wunderground v.1.15,2013-08-22 05:07:00,
2013-08-22 01:09:00,64.2,61.5,29.99,South,173,0.0,0.0,91,0.00,,,0.00,Wunderground v.1.15,2013-08-22 05:09:00,
2013-08-22 01:12:00,64.1,61.4,29.99,South,173,0.0,0.0,91,0.00,,,0.00,Wunderground v.1.15,2013-08-22 05:12:00,
2013-08-22 01:14:00,64.1,61.4,29.99,South,173,0.0,0.0,91,0.00,,,0.00,Wunderground v.1.15,2013-08-22 05:14:00,
2013-08-22 01:15:00,64.1,61.4,29.99,South,173,0.0,0.0,91,0.00,,,0.00,Wunderground v.1.15,2013-08-22 05:15:00,
2013-08-22 01:20:00,64.0,61.6,29.99,South,173,0.0,0.0,92,0.00,,,0.00,Wunderground v.1.15,2013-08-22 05:20:00,
2013-08-22 01:22:00,64.0,61.6,29.99,South,173,0.0,0.0,92,0.00,,,0.00,Wunderground v.1.15,2013-08-22 05:22:00,
2013-08-22 01:26:00,64.0,61.6,29.99,South,173,0.0,0.0,92,0.00,,,0.00,Wunderground v.1.15,2013-08-22 05:26:00,
2013-08-22 01:29:00,63.9,61.5,29.99,South,173,0.0,0.0,92,0.00,,,0.00,Wunderground v.1.15,2013-08-22 05:29:00,
2013-08-22 01:31:00,63.9,61.5,29.99,South,173,0.0,0.0,92,0.00,,,0.00,Wunderground v.1.15,2013-08-22 05:31:00,
2013-08-22 01:33:00,63.9,61.5,29.99,South,173,0.0,0.0,92,0.00,,,0.00,Wunderground v.1.15,2013-08-22 05:33:00,
2013-08-22 01:34:00,63.9,61.5,29.99,South,173,0.0,0.0,92,0.00,,,0.00,Wunderground v.1.15,2013-08-22 05:34:00,
2013-08-22 01:37:00,63.9,61.5,29.99,South,173,0.0,0.0,92,0.00,,,0.00,Wunderground v.1.15,2013-08-22 05:37:00,
2013-08-22 01:38:00,63.9,61.5,29.99,South,173,0.0,0.0,92,0.00,,,0.00,Wunderground v.1.15,2013-08-22 05:38:00,
2013-08-22 01:39:00,63.9,61.5,29.99,South,173,0.0,0.0,92,0.00,,,0.00,Wunderground v.1.15,2013-08-22 05:39:00,
2013-08-22 01:42:00,63.8,61.4,29.99,South,173,0.0,0.0,92,0.00,,,0.00,Wunderground v.1.15,2013-08-22 05:42:00,
2013-08-22 01:44:00,63.7,61.3,29.99,South,173,0.0,0.0,92,0.00,,,0.00,Wunderground v.1.15,2013-08-22 05:44:00,
2013-08-22 01:45:00,63.7,61.3,29.99,South,173,0.0,0.0,92,0.00,,,0.00,Wunderground v.1.15,2013-08-22 05:45:00,
2013-08-22 01:46:00,63.7,61.3,29.99,South,173,0.0,0.0,92,0.00,,,0.00,Wunderground v.1.15,2013-08-22 05:46:00,
2013-08-22 01:51:00,63.5,61.1,29.99,South,173,0.0,0.0,92,0.00,,,0.00,Wunderground v.1.15,2013-08-22 05:51:00,
2013-08-22 01:52:00,63.5,61.1,29.99,South,173,0.0,0.0,92,0.00,,,0.00,Wunderground v.1.15,2013-08-22 05:52:00,
2013-08-22 01:53:00,63.5,61.1,29.99,South,173,0.0,0.0,92,0.00,,,0.00,Wunderground v.1.15,2013-08-22 05:53:00,
2013-08-22 01:57:00,63.3,61.2,29.99,South,173,0.0,0.0,93,0.00,,,0.00,Wunderground v.1.15,2013-08-22 05:57:00,
2013-08-22 01:58:00,63.3,61.2,29.99,South,173,0.0,0.0,93,0.00,,,0.00,Wunderground v.1.15,2013-08-22 05:58:00,
2013-08-22 01:59:00,63.3,61.2,29.99,South,173,0.0,0.0,93,0.00,,,0.00,Wunderground v.1.15,2013-08-22 05:59:00,
2013-08-22 02:00:00,63.3,61.2,29.99,South,173,0.0,0.0,93,0.00,,,0.00,Wunderground v.1.15,2013-08-22 06:00:00,
2013-08-22 02:01:00,63.2,61.1,29.99,South,173,0.0,0.0,93,0.00,,,0.00,Wunderground v.1.15,2013-08-22 06:01:00,
2013-08-22 02:02:00,63.2,61.1,29.99,South,173,0.0,0.0,93,0.00,,,0.00,Wunderground v.1.15,2013-08-22 06:02:00,
2013-08-22 02:03:00,63.2,61.1,29.99,South,173,0.0,0.0,93,0.00,,,0.00,Wunderground v.1.15,2013-08-22 06:03:00,
2013-08-22 02:04:00,63.1,61.0,29.99,South,173,0.0,0.0,93,0.00,,,0.00,Wunderground v.1.15,2013-08-22 06:04:00,
2013-08-22 02:05:00,63.1,61.0,29.99,South,173,0.0,0.0,93,0.00,,,0.00,Wunderground v.1.15,2013-08-22 06:05:00,
2013-08-22 02:06:00,63.1,61.0,29.99,South,173,0.0,0.0,93,0.00,,,0.00,Wunderground v.1.15,2013-08-22 06:06:00,
2013-08-22 02:08:00,63.0,60.9,29.99,South,173,0.0,0.0,93,0.00,,,0.00,Wunderground v.1.15,2013-08-22 06:08:00,
2013-08-22 02:09:00,63.0,60.9,29.99,South,173,0.0,0.0,93,0.00,,,0.00,Wunderground v.1.15,2013-08-22 06:09:00,
2013-08-22 02:10:00,63.0,60.9,29.99,South,173,0.0,0.0,93,0.00,,,0.00,Wunderground v.1.15,2013-08-22 06:10:00,
2013-08-22 02:11:00,62.9,60.8,29.99,South,173,0.0,0.0,93,0.00,,,0.00,Wunderground v.1.15,2013-08-22 06:11:00,
2013-08-22 02:13:00,62.9,60.8,29.98,South,173,0.0,0.0,93,0.00,,,0.00,Wunderground v.1.15,2013-08-22 06:13:00,
2013-08-22 02:14:00,62.9,61.1,29.99,South,173,1.0,1.0,94,0.00,,,0.00,Wunderground v.1.15,2013-08-22 06:14:00,
2013-08-22 02:15:00,62.8,61.0,29.99,South,173,0.0,1.0,94,0.00,,,0.00,Wunderground v.1.15,2013-08-22 06:15:00,
2013-08-22 02:17:00,62.8,61.0,29.99,South,173,0.0,1.0,94,0.00,,,0.00,Wunderground v.1.15,2013-08-22 06:17:00,
2013-08-22 02:19:00,62.8,61.0,29.98,South,173,0.0,1.0,94,0.00,,,0.00,Wunderground v.1.15,2013-08-22 06:19:00,
2013-08-22 02:20:00,62.7,60.9,29.98,South,173,0.0,0.0,94,0.00,,,0.00,Wunderground v.1.15,2013-08-22 06:20:00,
2013-08-22 02:22:00,62.7,60.9,29.98,South,173,0.0,0.0,94,0.00,,,0.00,Wunderground v.1.15,2013-08-22 06:22:00,
2013-08-22 02:24:00,62.7,60.9,29.98,South,173,0.0,0.0,94,0.00,,,0.00,Wunderground v.1.15,2013-08-22 06:24:00,
2013-08-22 02:25:00,62.7,60.9,29.98,South,173,0.0,0.0,94,0.00,,,0.00,Wunderground v.1.15,2013-08-22 06:25:00,
2013-08-22 02:26:00,62.7,60.9,29.98,South,173,0.0,0.0,94,0.00,,,0.00,Wunderground v.1.15,2013-08-22 06:26:00,
2013-08-22 02:27:00,62.7,60.9,29.98,South,173,0.0,0.0,94,0.00,,,0.00,Wunderground v.1.15,2013-08-22 06:27:00,
2013-08-22 02:29:00,62.7,60.9,29.98,South,173,0.0,0.0,94,0.00,,,0.00,Wunderground v.1.15,2013-08-22 06:29:00,
2013-08-22 02:30:00,62.7,60.9,29.98,South,173,0.0,0.0,94,0.00,,,0.00,Wunderground v.1.15,2013-08-22 06:30:00,
2013-08-22 02:31:00,62.7,60.9,29.98,South,173,0.0,0.0,94,0.00,,,0.00,Wunderground v.1.15,2013-08-22 06:31:00,
2013-08-22 02:33:00,62.7,60.9,29.98,South,173,0.0,0.0,94,0.00,,,0.00,Wunderground v.1.15,2013-08-22 06:33:00,
2013-08-22 02:34:00,62.7,60.9,29.98,South,173,0.0,0.0,94,0.00,,,0.00,Wunderground v.1.15,2013-08-22 06:34:00,
2013-08-22 02:35:00,62.7,60.9,29.98,South,173,0.0,0.0,94,0.00,,,0.00,Wunderground v.1.15,2013-08-22 06:35:00,
2013-08-22 02:36:00,62.7,60.9,29.98,South,173,0.0,1.0,94,0.00,,,0.00,Wunderground v.1.15,2013-08-22 06:36:00,
2013-08-22 02:38:00,62.7,60.9,29.98,South,173,0.0,1.0,94,0.00,,,0.00,Wunderground v.1.15,2013-08-22 06:38:00,
2013-08-22 02:39:00,62.7,60.9,29.98,SW,223,4.0,4.0,94,0.00,,,0.00,Wunderground v.1.15,2013-08-22 06:39:00,
2013-08-22 02:40:00,62.7,60.9,29.98,SW,234,0.0,1.0,94,0.00,,,0.00,Wunderground v.1.15,2013-08-22 06:40:00,
2013-08-22 02:41:00,62.8,61.0,29.98,SW,234,0.0,1.0,94,0.00,,,0.00,Wunderground v.1.15,2013-08-22 06:41:00,
2013-08-22 02:43:00,62.8,61.0,29.98,SW,234,0.0,1.0,94,0.00,,,0.00,Wunderground v.1.15,2013-08-22 06:43:00,
2013-08-22 02:44:00,62.8,61.0,29.98,SW,234,0.0,1.0,94,0.00,,,0.00,Wunderground v.1.15,2013-08-22 06:44:00,
2013-08-22 02:45:00,62.9,60.8,29.98,SW,234,0.0,1.0,93,0.00,,,0.00,Wunderground v.1.15,2013-08-22 06:45:00,
2013-08-22 02:46:00,62.9,60.8,29.98,SW,234,0.0,1.0,93,0.00,,,0.00,Wunderground v.1.15,2013-08-22 06:46:00,
2013-08-22 02:47:00,62.9,60.8,29.98,SW,234,0.0,1.0,93,0.00,,,0.00,Wunderground v.1.15,2013-08-22 06:47:00,
2013-08-22 02:48:00,63.0,60.9,29.98,SW,234,0.0,1.0,93,0.00,,,0.00,Wunderground v.1.15,2013-08-22 06:48:00,
2013-08-22 02:50:00,63.0,60.9,29.98,SW,234,0.0,1.0,93,0.00,,,0.00,Wunderground v.1.15,2013-08-22 06:50:00,
2013-08-22 02:51:00,63.1,61.0,29.98,WSW,245,2.0,3.0,93,0.00,,,0.00,Wunderground v.1.15,2013-08-22 06:51:00,
2013-08-22 02:52:00,63.1,61.0,29.98,SSW,193,1.0,3.0,93,0.00,,,0.00,Wunderground v.1.15,2013-08-22 06:52:00,
2013-08-22 02:53:00,63.2,61.1,29.98,SSW,193,0.0,3.0,93,0.00,,,0.00,Wunderground v.1.15,2013-08-22 06:53:00,
2013-08-22 02:55:00,63.2,61.1,29.98,SSW,193,0.0,3.0,93,0.00,,,0.00,Wunderground v.1.15,2013-08-22 06:55:00,
2013-08-22 02:56:00,63.3,60.9,29.98,SW,219,0.0,3.0,92,0.00,,,0.00,Wunderground v.1.15,2013-08-22 06:56:00,
2013-08-22 02:57:00,63.3,60.9,29.98,South,187,1.0,3.0,92,0.00,,,0.00,Wunderground v.1.15,2013-08-22 06:57:00,
2013-08-22 02:59:00,63.3,60.9,29.98,WSW,254,0.0,3.0,92,0.00,,,0.00,Wunderground v.1.15,2013-08-22 06:59:00,
2013-08-22 03:00:00,63.4,61.0,29.98,WSW,238,0.0,0.0,92,0.00,,,0.00,Wunderground v.1.15,2013-08-22 07:00:00,
2013-08-22 03:01:00,63.4,61.0,29.98,WSW,238,0.0,0.0,92,0.00,,,0.00,Wunderground v.1.15,2013-08-22 07:01:00,
2013-08-22 03:02:00,63.4,61.0,29.98,WSW,238,0.0,0.0,92,0.00,,,0.00,Wunderground v.1.15,2013-08-22 07:02:00,
2013-08-22 03:03:00,63.5,61.1,29.98,WSW,238,0.0,0.0,92,0.00,,,0.00,Wunderground v.1.15,2013-08-22 07:03:00,
2013-08-22 03:04:00,63.5,61.1,29.98,SSW,202,1.0,3.0,92,0.00,,,0.00,Wunderground v.1.15,2013-08-22 07:04:00,
2013-08-22 03:06:00,63.6,60.9,29.98,South,187,0.0,3.0,91,0.00,,,0.00,Wunderground v.1.15,2013-08-22 07:06:00,
2013-08-22 03:07:00,63.6,60.9,29.98,South,187,0.0,3.0,91,0.00,,,0.00,Wunderground v.1.15,2013-08-22 07:07:00,
2013-08-22 03:08:00,63.6,60.9,29.98,South,187,0.0,3.0,91,0.00,,,0.00,Wunderground v.1.15,2013-08-22 07:08:00,
2013-08-22 03:09:00,63.6,60.9,29.98,South,187,0.0,3.0,91,0.00,,,0.00,Wunderground v.1.15,2013-08-22 07:09:00,
2013-08-22 03:11:00,63.7,61.0,29.98,South,187,0.0,0.0,91,0.00,,,0.00,Wunderground v.1.15,2013-08-22 07:11:00,
2013-08-22 03:12:00,63.7,61.0,29.98,South,187,0.0,0.0,91,0.00,,,0.00,Wunderground v.1.15,2013-08-22 07:12:00,
2013-08-22 03:13:00,63.7,60.7,29.98,SSW,202,0.0,1.0,90,0.00,,,0.00,Wunderground v.1.15,2013-08-22 07:13:00,
2013-08-22 03:14:00,63.8,60.8,29.98,SSW,200,0.0,1.0,90,0.00,,,0.00,Wunderground v.1.15,2013-08-22 07:14:00,
2013-08-22 03:17:00,63.8,60.8,29.98,SSW,200,0.0,1.0,90,0.00,,,0.00,Wunderground v.1.15,2013-08-22 07:17:00,
2013-08-22 03:18:00,63.8,60.8,29.98,SSW,200,0.0,1.0,90,0.00,,,0.00,Wunderground v.1.15,2013-08-22 07:18:00,
2013-08-22 03:20:00,63.9,60.6,29.98,SW,225,0.0,2.0,89,0.00,,,0.00,Wunderground v.1.15,2013-08-22 07:20:00,
2013-08-22 03:22:00,64.0,60.7,29.98,WSW,240,0.0,2.0,89,0.00,,,0.00,Wunderground v.1.15,2013-08-22 07:22:00,
2013-08-22 03:23:00,64.1,60.8,29.98,WSW,240,0.0,2.0,89,0.00,,,0.00,Wunderground v.1.15,2013-08-22 07:23:00,
2013-08-22 03:25:00,64.1,60.5,29.98,WSW,240,0.0,2.0,88,0.00,,,0.00,Wunderground v.1.15,2013-08-22 07:25:00,
2013-08-22 03:27:00,64.3,60.7,29.98,WSW,240,0.0,2.0,88,0.00,,,0.00,Wunderground v.1.15,2013-08-22 07:27:00,
2013-08-22 03:28:00,64.3,60.7,29.98,SW,218,0.0,2.0,88,0.00,,,0.00,Wunderground v.1.15,2013-08-22 07:28:00,
2013-08-22 03:30:00,64.3,60.7,29.98,SW,218,0.0,0.0,88,0.00,,,0.00,Wunderground v.1.15,2013-08-22 07:30:00,
2013-08-22 03:32:00,64.3,60.7,29.98,SW,226,0.0,1.0,88,0.00,,,0.00,Wunderground v.1.15,2013-08-22 07:32:00,
2013-08-22 03:33:00,64.3,60.7,29.98,SW,226,0.0,1.0,88,0.00,,,0.00,Wunderground v.1.15,2013-08-22 07:33:00,
2013-08-22 03:35:00,64.3,60.7,29.98,SW,226,0.0,1.0,88,0.00,,,0.00,Wunderground v.1.15,2013-08-22 07:35:00,
2013-08-22 03:37:00,64.3,60.7,29.98,SW,226,0.0,1.0,88,0.00,,,0.00,Wunderground v.1.15,2013-08-22 07:37:00,
2013-08-22 03:38:00,64.3,60.7,29.98,SW,226,0.0,1.0,88,0.00,,,0.00,Wunderground v.1.15,2013-08-22 07:38:00,
2013-08-22 03:39:00,64.3,60.7,29.98,SW,226,0.0,1.0,88,0.00,,,0.00,Wunderground v.1.15,2013-08-22 07:39:00,
2013-08-22 03:40:00,64.3,60.7,29.97,SW,226,0.0,0.0,88,0.00,,,0.00,Wunderground v.1.15,2013-08-22 07:40:00,
2013-08-22 03:43:00,64.2,60.6,29.97,SW,226,0.0,0.0,88,0.00,,,0.00,Wunderground v.1.15,2013-08-22 07:43:00,
2013-08-22 03:44:00,64.2,60.6,29.97,SW,226,0.0,0.0,88,0.00,,,0.00,Wunderground v.1.15,2013-08-22 07:44:00,
2013-08-22 03:46:00,64.1,60.5,29.97,SW,226,0.0,0.0,88,0.00,,,0.00,Wunderground v.1.15,2013-08-22 07:46:00,
2013-08-22 03:48:00,64.1,60.5,29.97,SW,226,0.0,0.0,88,0.00,,,0.00,Wunderground v.1.15,2013-08-22 07:48:00,
2013-08-22 03:50:00,64.0,60.7,29.97,SW,226,0.0,0.0,89,0.00,,,0.00,Wunderground v.1.15,2013-08-22 07:50:00,
2013-08-22 03:51:00,64.0,60.7,29.97,SW,226,0.0,0.0,89,0.00,,,0.00,Wunderground v.1.15,2013-08-22 07:51:00,
2013-08-22 03:53:00,63.9,60.6,29.97,SW,226,0.0,0.0,89,0.00,,,0.00,Wunderground v.1.15,2013-08-22 07:53:00,
2013-08-22 03:55:00,63.8,60.5,29.97,SW,226,0.0,0.0,89,0.00,,,0.00,Wunderground v.1.15,2013-08-22 07:55:00,
2013-08-22 03:56:00,63.8,60.5,29.97,SW,226,0.0,0.0,89,0.00,,,0.00,Wunderground v.1.15,2013-08-22 07:56:00,
2013-08-22 03:58:00,63.7,60.4,29.97,SW,226,0.0,0.0,89,0.00,,,0.00,Wunderground v.1.15,2013-08-22 07:58:00,
2013-08-22 04:00:00,63.7,60.4,29.97,SW,226,0.0,0.0,89,0.00,,,0.00,Wunderground v.1.15,2013-08-22 08:00:00,
2013-08-22 04:01:00,63.7,60.4,29.97,SW,226,0.0,0.0,89,0.00,,,0.00,Wunderground v.1.15,2013-08-22 08:01:00,
2013-08-22 04:03:00,63.6,60.3,29.97,SW,226,0.0,0.0,89,0.00,,,0.00,Wunderground v.1.15,2013-08-22 08:03:00,
2013-08-22 04:04:00,63.6,60.3,29.97,SW,226,0.0,0.0,89,0.00,,,0.00,Wunderground v.1.15,2013-08-22 08:04:00,
2013-08-22 04:05:00,63.5,60.2,29.96,SW,226,0.0,0.0,89,0.00,,,0.00,Wunderground v.1.15,2013-08-22 08:05:00,
2013-08-22 04:06:00,63.5,60.2,29.96,SW,226,0.0,0.0,89,0.00,,,0.00,Wunderground v.1.15,2013-08-22 08:06:00,
2013-08-22 04:09:00,63.4,60.4,29.96,SW,226,0.0,0.0,90,0.00,,,0.00,Wunderground v.1.15,2013-08-22 08:09:00,
2013-08-22 04:10:00,63.3,60.3,29.96,SW,226,0.0,0.0,90,0.00,,,0.00,Wunderground v.1.15,2013-08-22 08:10:00,
2013-08-22 04:11:00,63.3,60.3,29.96,SW,226,0.0,0.0,90,0.00,,,0.00,Wunderground v.1.15,2013-08-22 08:11:00,
2013-08-22 04:12:00,63.2,60.2,29.96,SW,226,0.0,0.0,90,0.00,,,0.00,Wunderground v.1.15,2013-08-22 08:12:00,
2013-08-22 04:14:00,63.2,60.2,29.96,SW,226,0.0,0.0,90,0.00,,,0.00,Wunderground v.1.15,2013-08-22 08:14:00,
2013-08-22 04:15:00,63.1,60.1,29.96,SW,226,0.0,0.0,90,0.00,,,0.00,Wunderground v.1.15,2013-08-22 08:15:00,
2013-08-22 04:16:00,63.1,60.1,29.96,SW,226,0.0,0.0,90,0.00,,,0.00,Wunderground v.1.15,2013-08-22 08:16:00,
2013-08-22 04:17:00,63.0,60.0,29.96,SW,226,0.0,0.0,90,0.00,,,0.00,Wunderground v.1.15,2013-08-22 08:17:00,
2013-08-22 04:19:00,63.0,60.0,29.96,SW,226,0.0,0.0,90,0.00,,,0.00,Wunderground v.1.15,2013-08-22 08:19:00,
2013-08-22 04:20:00,63.0,60.0,29.96,SW,226,0.0,0.0,90,0.00,,,0.00,Wunderground v.1.15,2013-08-22 08:20:00,
2013-08-22 04:21:00,62.9,60.2,29.96,SW,226,0.0,0.0,91,0.00,,,0.00,Wunderground v.1.15,2013-08-22 08:21:00,
2013-08-22 04:22:00,62.9,60.2,29.96,SW,226,0.0,0.0,91,0.00,,,0.00,Wunderground v.1.15,2013-08-22 08:22:00,
2013-08-22 04:24:00,62.9,60.2,29.96,SW,226,0.0,1.0,91,0.00,,,0.00,Wunderground v.1.15,2013-08-22 08:24:00,
2013-08-22 04:25:00,62.9,60.2,29.96,SW,226,0.0,1.0,91,0.00,,,0.00,Wunderground v.1.15,2013-08-22 08:25:00,
2013-08-22 04:26:00,62.8,60.1,29.96,SW,226,0.0,1.0,91,0.00,,,0.00,Wunderground v.1.15,2013-08-22 08:26:00,
2013-08-22 04:27:00,62.8,60.1,29.95,SW,226,0.0,1.0,91,0.00,,,0.00,Wunderground v.1.15,2013-08-22 08:27:00,
2013-08-22 04:29:00,62.8,60.1,29.95,SW,226,0.0,1.0,91,0.00,,,0.00,Wunderground v.1.15,2013-08-22 08:29:00,
2013-08-22 04:30:00,62.8,60.1,29.95,SW,226,0.0,1.0,91,0.00,,,0.00,Wunderground v.1.15,2013-08-22 08:30:00,
2013-08-22 04:32:00,62.7,60.0,29.95,SW,226,0.0,1.0,91,0.00,,,0.00,Wunderground v.1.15,2013-08-22 08:32:00,
2013-08-22 04:33:00,62.7,60.0,29.95,SW,226,0.0,1.0,91,0.00,,,0.00,Wunderground v.1.15,2013-08-22 08:33:00,
2013-08-22 04:34:00,62.7,60.0,29.96,WNW,288,0.0,1.0,91,0.00,,,0.00,Wunderground v.1.15,2013-08-22 08:34:00,
2013-08-22 04:35:00,62.7,60.0,29.95,WNW,288,0.0,1.0,91,0.00,,,0.00,Wunderground v.1.15,2013-08-22 08:35:00,
2013-08-22 04:37:00,62.7,60.0,29.95,WNW,288,0.0,1.0,91,0.00,,,0.00,Wunderground v.1.15,2013-08-22 08:37:00,
2013-08-22 04:38:00,62.7,60.0,29.95,WNW,288,0.0,1.0,91,0.00,,,0.00,Wunderground v.1.15,2013-08-22 08:38:00,
2013-08-22 04:40:00,62.7,60.0,29.96,WNW,289,0.0,0.0,91,0.00,,,0.00,Wunderground v.1.15,2013-08-22 08:40:00,
2013-08-22 04:41:00,62.7,60.0,29.95,West,276,0.0,0.0,91,0.00,,,0.00,Wunderground v.1.15,2013-08-22 08:41:00,
2013-08-22 04:42:00,62.7,60.0,29.95,West,276,0.0,0.0,91,0.00,,,0.00,Wunderground v.1.15,2013-08-22 08:42:00,
2013-08-22 04:43:00,62.7,60.0,29.95,West,275,0.0,0.0,91,0.00,,,0.00,Wunderground v.1.15,2013-08-22 08:43:00,
2013-08-22 04:45:00,62.7,60.0,29.95,West,276,0.0,0.0,91,0.00,,,0.00,Wunderground v.1.15,2013-08-22 08:45:00,
2013-08-22 04:46:00,62.7,60.0,29.95,West,276,2.0,2.0,91,0.00,,,0.00,Wunderground v.1.15,2013-08-22 08:46:00,
2013-08-22 04:48:00,62.7,60.0,29.95,West,276,0.0,3.0,91,0.00,,,0.00,Wunderground v.1.15,2013-08-22 08:48:00,
2013-08-22 04:50:00,62.7,60.0,29.95,West,276,0.0,0.0,91,0.00,,,0.00,Wunderground v.1.15,2013-08-22 08:50:00,
2013-08-22 04:51:00,62.7,60.0,29.95,West,276,0.0,0.0,91,0.00,,,0.00,Wunderground v.1.15,2013-08-22 08:51:00,
2013-08-22 04:53:00,62.7,60.0,29.95,West,276,0.0,1.0,91,0.00,,,0.00,Wunderground v.1.15,2013-08-22 08:53:00,
2013-08-22 04:55:00,62.7,60.0,29.95,West,276,0.0,4.0,91,0.00,,,0.00,Wunderground v.1.15,2013-08-22 08:55:00,
2013-08-22 04:56:00,62.6,59.9,29.95,West,276,0.0,4.0,91,0.00,,,0.00,Wunderground v.1.15,2013-08-22 08:56:00,
2013-08-22 04:58:00,62.7,60.0,29.95,West,276,0.0,4.0,91,0.00,,,0.00,Wunderground v.1.15,2013-08-22 08:58:00,
2013-08-22 04:59:00,62.6,59.9,29.95,West,276,0.0,4.0,91,0.00,,,0.00,Wunderground v.1.15,2013-08-22 08:59:00,
2013-08-22 05:01:00,62.6,59.9,29.95,West,276,0.0,0.0,91,0.00,,,0.00,Wunderground v.1.15,2013-08-22 09:01:00,
2013-08-22 05:03:00,62.6,59.9,29.95,West,276,0.0,0.0,91,0.00,,,0.00,Wunderground v.1.15,2013-08-22 09:03:00,
2013-08-22 05:04:00,62.6,59.9,29.95,West,276,0.0,0.0,91,0.00,,,0.00,Wunderground v.1.15,2013-08-22 09:04:00,
2013-08-22 05:06:00,62.6,59.9,29.94,SW,217,0.0,1.0,91,0.00,,,0.00,Wunderground v.1.15,2013-08-22 09:06:00,
2013-08-22 05:07:00,62.6,59.9,29.94,SW,217,0.0,1.0,91,0.00,,,0.00,Wunderground v.1.15,2013-08-22 09:07:00,
2013-08-22 05:09:00,62.6,59.9,29.94,SW,217,0.0,1.0,91,0.00,,,0.00,Wunderground v.1.15,2013-08-22 09:09:00,
2013-08-22 05:11:00,62.5,59.8,29.95,SW,217,0.0,0.0,91,0.00,,,0.00,Wunderground v.1.15,2013-08-22 09:11:00,
2013-08-22 05:12:00,62.5,59.8,29.94,SW,217,0.0,0.0,91,0.00,,,0.00,Wunderground v.1.15,2013-08-22 09:12:00,
2013-08-22 05:14:00,62.5,59.8,29.94,WSW,257,0.0,3.0,91,0.00,,,0.00,Wunderground v.1.15,2013-08-22 09:14:00,
2013-08-22 05:16:00,62.5,59.8,29.94,WSW,257,0.0,3.0,91,0.00,,,0.00,Wunderground v.1.15,2013-08-22 09:16:00,
2013-08-22 05:17:00,62.5,59.8,29.94,WSW,257,0.0,3.0,91,0.00,,,0.00,Wunderground v.1.15,2013-08-22 09:17:00,
2013-08-22 05:19:00,62.4,59.7,29.94,WSW,257,0.0,3.0,91,0.00,,,0.00,Wunderground v.1.15,2013-08-22 09:19:00,
2013-08-22 05:20:00,62.4,59.7,29.94,SSW,203,0.0,0.0,91,0.00,,,0.00,Wunderground v.1.15,2013-08-22 09:20:00,
2013-08-22 05:22:00,62.3,59.3,29.94,SSW,202,0.0,0.0,90,0.00,,,0.00,Wunderground v.1.15,2013-08-22 09:22:00,
2013-08-22 05:24:00,62.3,59.6,29.94,SSW,202,0.0,0.0,91,0.00,,,0.00,Wunderground v.1.15,2013-08-22 09:24:00,
2013-08-22 05:25:00,62.2,59.5,29.94,SSW,202,0.0,0.0,91,0.00,,,0.00,Wunderground v.1.15,2013-08-22 09:25:00,
2013-08-22 05:27:00,62.2,59.5,29.94,SSW,202,0.0,0.0,91,0.00,,,0.00,Wunderground v.1.15,2013-08-22 09:27:00,
2013-08-22 05:30:00,62.1,59.4,29.94,SSW,202,0.0,0.0,91,0.00,,,0.00,Wunderground v.1.15,2013-08-22 09:30:00,
2013-08-22 05:31:00,62.1,59.4,29.94,SSW,203,0.0,0.0,91,0.00,,,0.00,Wunderground v.1.15,2013-08-22 09:31:00,
2013-08-22 05:32:00,62.0,59.3,29.94,SSW,202,0.0,0.0,91,0.00,,,0.00,Wunderground v.1.15,2013-08-22 09:32:00,
2013-08-22 05:35:00,61.9,59.2,29.94,SSW,202,0.0,0.0,91,0.00,,,0.00,Wunderground v.1.15,2013-08-22 09:35:00,
2013-08-22 05:36:00,61.9,59.5,29.94,SSW,203,0.0,0.0,92,0.00,,,0.00,Wunderground v.1.15,2013-08-22 09:36:00,
2013-08-22 05:37:00,61.9,59.5,29.94,SSW,202,0.0,0.0,92,0.00,,,0.00,Wunderground v.1.15,2013-08-22 09:37:00,
2013-08-22 05:40:00,61.8,59.5,29.93,SSW,203,0.0,0.0,92,0.00,,,0.00,Wunderground v.1.15,2013-08-22 09:40:00,
2013-08-22 05:42:00,61.9,59.5,29.93,SSW,203,0.0,0.0,92,0.00,,,0.00,Wunderground v.1.15,2013-08-22 09:42:00,
2013-08-22 05:45:00,61.9,59.2,29.94,SSW,203,0.0,0.0,91,0.00,,,0.00,Wunderground v.1.15,2013-08-22 09:45:00,
2013-08-22 05:47:00,61.9,59.2,29.93,SSW,203,0.0,0.0,91,0.00,,,0.00,Wunderground v.1.15,2013-08-22 09:47:00,
2013-08-22 05:48:00,61.9,59.2,29.93,SSW,203,0.0,0.0,91,0.00,,,0.00,Wunderground v.1.15,2013-08-22 09:48:00,
2013-08-22 05:50:00,62.0,59.0,29.94,SSW,203,0.0,0.0,90,0.00,,,0.00,Wunderground v.1.15,2013-08-22 09:50:00,
2013-08-22 05:52:00,62.0,59.0,29.94,SSW,203,0.0,0.0,90,0.00,,,0.00,Wunderground v.1.15,2013-08-22 09:52:00,
2013-08-22 05:53:00,62.0,59.0,29.93,SSW,203,0.0,0.0,90,0.00,,,0.00,Wunderground v.1.15,2013-08-22 09:53:00,
2013-08-22 05:55:00,62.1,59.1,29.94,SSW,202,0.0,0.0,90,0.00,,,0.00,Wunderground v.1.15,2013-08-22 09:55:00,
2013-08-22 05:57:00,62.1,58.8,29.93,SSW,203,0.0,0.0,89,0.00,,,0.00,Wunderground v.1.15,2013-08-22 09:57:00,
2013-08-22 05:58:00,62.1,58.8,29.93,SSW,203,0.0,0.0,89,0.00,,,0.00,Wunderground v.1.15,2013-08-22 09:58:00,
2013-08-22 06:00:00,62.2,58.9,29.93,SSW,202,0.0,0.0,89,0.00,,,0.00,Wunderground v.1.15,2013-08-22 10:00:00,
2013-08-22 06:01:00,62.2,58.9,29.93,SSW,202,0.0,0.0,89,0.00,,,0.00,Wunderground v.1.15,2013-08-22 10:01:00,
2013-08-22 06:02:00,62.3,59.0,29.93,SSW,203,0.0,0.0,89,0.00,,,0.00,Wunderground v.1.15,2013-08-22 10:02:00,
2013-08-22 06:03:00,62.4,58.8,29.93,SSW,203,0.0,0.0,88,0.00,,,0.00,Wunderground v.1.15,2013-08-22 10:03:00,
2013-08-22 06:05:00,62.6,59.0,29.93,SSW,203,0.0,0.0,88,0.00,,,0.00,Wunderground v.1.15,2013-08-22 10:05:00,
2013-08-22 06:06:00,62.7,59.1,29.93,SSW,202,0.0,0.0,88,0.00,,,0.00,Wunderground v.1.15,2013-08-22 10:06:00,
2013-08-22 06:07:00,62.8,58.9,29.93,SSW,202,0.0,1.0,87,0.00,,,0.00,Wunderground v.1.15,2013-08-22 10:07:00,
2013-08-22 06:08:00,62.9,59.3,29.93,SSW,203,0.0,1.0,88,0.00,,,0.00,Wunderground v.1.15,2013-08-22 10:08:00,
2013-08-22 06:10:00,63.0,59.1,29.93,SSW,203,0.0,0.0,87,0.00,,,0.00,Wunderground v.1.15,2013-08-22 10:10:00,
2013-08-22 06:11:00,63.0,59.1,29.93,SSW,203,0.0,0.0,87,0.00,,,0.00,Wunderground v.1.15,2013-08-22 10:11:00,
2013-08-22 06:12:00,63.0,59.1,29.93,SSW,202,0.0,1.0,87,0.00,,,0.00,Wunderground v.1.15,2013-08-22 10:12:00,
2013-08-22 06:13:00,63.0,59.1,29.93,SSW,203,0.0,1.0,87,0.00,,,0.00,Wunderground v.1.15,2013-08-22 10:13:00,
2013-08-22 06:16:00,62.9,59.0,29.93,SSW,202,0.0,1.0,87,0.00,,,0.00,Wunderground v.1.15,2013-08-22 10:16:00,
2013-08-22 06:17:00,63.0,59.1,29.93,SSW,203,0.0,1.0,87,0.00,,,0.00,Wunderground v.1.15,2013-08-22 10:17:00,
2013-08-22 06:18:00,63.0,59.1,29.93,SSW,203,0.0,1.0,87,0.00,,,0.00,Wunderground v.1.15,2013-08-22 10:18:00,
2013-08-22 06:21:00,63.1,58.8,29.94,SSW,202,0.0,0.0,86,0.00,,,0.00,Wunderground v.1.15,2013-08-22 10:21:00,
2013-08-22 06:22:00,63.1,58.8,29.94,SSW,203,0.0,1.0,86,0.00,,,0.00,Wunderground v.1.15,2013-08-22 10:22:00,
2013-08-22 06:24:00,63.1,58.8,29.94,SSW,203,0.0,1.0,86,0.00,,,0.00,Wunderground v.1.15,2013-08-22 10:24:00,
2013-08-22 06:26:00,63.2,58.9,29.93,SSW,202,0.0,1.0,86,0.00,,,0.00,Wunderground v.1.15,2013-08-22 10:26:00,
2013-08-22 06:27:00,63.3,59.0,29.93,West,264,0.0,1.0,86,0.00,,,0.00,Wunderground v.1.15,2013-08-22 10:27:00,
2013-08-22 06:29:00,63.3,58.7,29.94,SSE,149,1.0,1.0,85,0.00,,,0.00,Wunderground v.1.15,2013-08-22 10:29:00,
2013-08-22 06:31:00,63.5,58.9,29.94,SSE,149,0.0,0.0,85,0.00,,,0.00,Wunderground v.1.15,2013-08-22 10:31:00,
2013-08-22 06:33:00,63.6,58.7,29.94,SSE,149,0.0,1.0,84,0.00,,,0.00,Wunderground v.1.15,2013-08-22 10:33:00,
2013-08-22 06:34:00,63.6,58.7,29.94,SSE,149,0.0,1.0,84,0.00,,,0.00,Wunderground v.1.15,2013-08-22 10:34:00,
2013-08-22 06:36:00,63.8,58.9,29.93,SE,139,0.0,4.0,84,0.00,,,0.00,Wunderground v.1.15,2013-08-22 10:36:00,
2013-08-22 06:37:00,63.9,59.0,29.93,SE,139,0.0,4.0,84,0.00,,,0.00,Wunderground v.1.15,2013-08-22 10:37:00,
2013-08-22 06:38:00,64.0,59.1,29.93,SE,139,0.0,4.0,84,0.00,,,0.00,Wunderground v.1.15,2013-08-22 10:38:00,
2013-08-22 06:39:00,64.1,58.8,29.93,SE,139,0.0,4.0,83,0.00,,,0.00,Wunderground v.1.15,2013-08-22 10:39:00,
2013-08-22 06:41:00,64.2,58.9,29.93,South,187,0.0,2.0,83,0.00,,,0.00,Wunderground v.1.15,2013-08-22 10:41:00,
2013-08-22 06:43:00,64.3,59.0,29.93,South,187,0.0,2.0,83,0.00,,,0.00,Wunderground v.1.15,2013-08-22 10:43:00,
2013-08-22 06:44:00,64.3,59.0,29.94,South,187,0.0,2.0,83,0.00,,,0.00,Wunderground v.1.15,2013-08-22 10:44:00,
2013-08-22 06:47:00,64.5,59.2,29.93,South,187,0.0,2.0,83,0.00,,,0.00,Wunderground v.1.15,2013-08-22 10:47:00,
2013-08-22 06:48:00,64.5,58.9,29.93,South,187,0.0,2.0,82,0.00,,,0.00,Wunderground v.1.15,2013-08-22 10:48:00,
2013-08-22 06:49:00,64.6,59.0,29.93,South,187,0.0,2.0,82,0.00,,,0.00,Wunderground v.1.15,2013-08-22 10:49:00,
2013-08-22 08:27:00,67.9,60.8,29.94,SW,228,0.0,1.0,78,0.00,,,0.00,Wunderground v.1.15,2013-08-22 12:27:00,
2013-08-22 08:28:00,68.0,60.5,29.94,SW,228,0.0,1.0,77,0.00,,,0.00,Wunderground v.1.15,2013-08-22 12:28:00,
2013-08-22 08:29:00,68.1,60.6,29.94,SW,228,0.0,1.0,77,0.00,,,0.00,Wunderground v.1.15,2013-08-22 12:29:00,
2013-08-22 08:33:00,68.5,60.6,29.94,SW,228,0.0,0.0,76,0.00,,,0.00,Wunderground v.1.15,2013-08-22 12:33:00,
2013-08-22 08:34:00,68.7,60.5,29.94,SW,228,0.0,1.0,75,0.00,,,0.00,Wunderground v.1.15,2013-08-22 12:34:00,
2013-08-22 08:38:00,69.0,61.1,29.94,SW,228,0.0,2.0,76,0.00,,,0.00,Wunderground v.1.15,2013-08-22 12:38:00,
2013-08-22 08:39:00,69.1,61.6,29.95,SW,228,0.0,2.0,77,0.00,,,0.00,Wunderground v.1.15,2013-08-22 12:39:00,
2013-08-22 08:43:00,69.4,61.1,29.94,SW,228,0.0,0.0,75,0.00,,,0.00,Wunderground v.1.15,2013-08-22 12:43:00,
2013-08-22 08:44:00,69.5,60.8,29.94,SW,228,0.0,0.0,74,0.00,,,0.00,Wunderground v.1.15,2013-08-22 12:44:00,
2013-08-22 08:48:00,69.6,60.9,29.94,SW,228,0.0,1.0,74,0.00,,,0.00,Wunderground v.1.15,2013-08-22 12:48:00,
2013-08-22 08:49:00,69.7,61.0,29.94,SW,228,0.0,1.0,74,0.00,,,0.00,Wunderground v.1.15,2013-08-22 12:49:00,
2013-08-22 08:50:00,69.7,60.7,29.94,SW,228,0.0,0.0,73,0.00,,,0.00,Wunderground v.1.15,2013-08-22 12:50:00,
2013-08-22 08:53:00,69.9,62.0,29.94,SW,228,0.0,0.0,76,0.00,,,0.00,Wunderground v.1.15,2013-08-22 12:53:00,
2013-08-22 08:54:00,69.9,62.0,29.94,SW,228,0.0,1.0,76,0.00,,,0.00,Wunderground v.1.15,2013-08-22 12:54:00,
2013-08-22 08:55:00,69.9,61.6,29.94,SW,228,0.0,1.0,75,0.00,,,0.00,Wunderground v.1.15,2013-08-22 12:55:00,
2013-08-22 08:59:00,69.9,62.7,29.95,SW,228,0.0,2.0,78,0.00,,,0.00,Wunderground v.1.15,2013-08-22 12:59:00,
2013-08-22 09:00:00,69.8,61.9,29.95,SW,228,1.0,1.0,76,0.00,,,0.00,Wunderground v.1.15,2013-08-22 13:00:00,
2013-08-22 09:01:00,69.8,62.3,29.95,SW,228,0.0,2.0,77,0.00,,,0.00,Wunderground v.1.15,2013-08-22 13:01:00,
2013-08-22 09:04:00,69.7,62.2,29.94,SW,228,0.0,2.0,77,0.00,,,0.00,Wunderground v.1.15,2013-08-22 13:04:00,
2013-08-22 09:05:00,69.7,62.2,29.94,SW,228,0.0,2.0,77,0.00,,,0.00,Wunderground v.1.15,2013-08-22 13:05:00,
2013-08-22 09:06:00,69.8,62.3,29.94,SW,228,0.0,2.0,77,0.00,,,0.00,Wunderground v.1.15,2013-08-22 13:06:00,
2013-08-22 09:07:00,69.8,62.6,29.95,SW,228,0.0,2.0,78,0.00,,,0.00,Wunderground v.1.15,2013-08-22 13:07:00,
2013-08-22 09:09:00,69.9,63.1,29.95,West,265,2.0,5.0,79,0.00,,,0.00,Wunderground v.1.15,2013-08-22 13:09:00,
2013-08-22 09:10:00,69.8,62.3,29.95,WSW,238,0.0,1.0,77,0.00,,,0.00,Wunderground v.1.15,2013-08-22 13:10:00,
2013-08-22 09:12:00,69.8,62.3,29.95,WSW,238,0.0,1.0,77,0.00,,,0.00,Wunderground v.1.15,2013-08-22 13:12:00,
2013-08-22 09:15:00,69.9,63.4,29.94,WSW,238,0.0,2.0,80,0.00,,,0.00,Wunderground v.1.15,2013-08-22 13:15:00,
2013-08-22 09:16:00,69.9,63.4,29.94,WSW,238,0.0,2.0,80,0.00,,,0.00,Wunderground v.1.15,2013-08-22 13:16:00,
2013-08-22 09:17:00,69.9,63.1,29.94,WSW,238,0.0,2.0,79,0.00,,,0.00,Wunderground v.1.15,2013-08-22 13:17:00,
2013-08-22 09:20:00,70.1,63.3,29.94,WSW,238,0.0,1.0,79,0.00,,,0.00,Wunderground v.1.15,2013-08-22 13:20:00,
2013-08-22 09:21:00,70.2,63.4,29.94,WSW,238,0.0,1.0,79,0.00,,,0.00,Wunderground v.1.15,2013-08-22 13:21:00,
2013-08-22 09:22:00,70.3,62.7,29.94,WSW,238,1.0,1.0,77,0.00,,,0.00,Wunderground v.1.15,2013-08-22 13:22:00,
2013-08-22 09:26:00,70.5,63.7,29.94,West,277,0.0,3.0,79,0.00,,,0.00,Wunderground v.1.15,2013-08-22 13:26:00,
2013-08-22 09:27:00,70.6,64.1,29.94,NW,304,2.0,8.0,80,0.00,,,0.00,Wunderground v.1.15,2013-08-22 13:27:00,
2013-08-22 09:31:00,70.8,63.6,29.94,SSW,212,1.0,3.0,78,0.00,,,0.00,Wunderground v.1.15,2013-08-22 13:31:00,
2013-08-22 09:32:00,70.9,63.7,29.94,SSW,192,0.0,3.0,78,0.00,,,0.00,Wunderground v.1.15,2013-08-22 13:32:00,
2013-08-22 09:33:00,70.9,63.7,29.94,SSW,192,0.0,3.0,78,0.00,,,0.00,Wunderground v.1.15,2013-08-22 13:33:00,
2013-08-22 09:36:00,71.0,63.4,29.94,WSW,240,0.0,3.0,77,0.00,,,0.00,Wunderground v.1.15,2013-08-22 13:36:00,
2013-08-22 09:37:00,71.0,63.4,29.94,WSW,240,1.0,3.0,77,0.00,,,0.00,Wunderground v.1.15,2013-08-22 13:37:00,
2013-08-22 09:38:00,71.1,63.5,29.94,SW,229,0.0,3.0,77,0.00,,,0.00,Wunderground v.1.15,2013-08-22 13:38:00,
2013-08-22 09:41:00,71.3,64.4,29.94,WSW,254,1.0,1.0,79,0.00,,,0.00,Wunderground v.1.15,2013-08-22 13:41:00,
2013-08-22 09:42:00,71.3,64.4,29.94,WSW,254,0.0,1.0,79,0.00,,,0.00,Wunderground v.1.15,2013-08-22 13:42:00,
2013-08-22 09:43:00,71.4,64.5,29.94,WSW,254,3.0,5.0,79,0.00,,,0.00,Wunderground v.1.15,2013-08-22 13:43:00,
2013-08-22 09:44:00,71.5,64.6,29.94,SW,219,0.0,5.0,79,0.00,,,0.00,Wunderground v.1.15,2013-08-22 13:44:00,
2013-08-22 09:47:00,71.6,64.4,29.94,NW,308,0.0,5.0,78,0.00,,,0.00,Wunderground v.1.15,2013-08-22 13:47:00,
2013-08-22 09:48:00,71.6,64.0,29.94,WNW,293,3.0,5.0,77,0.00,,,0.00,Wunderground v.1.15,2013-08-22 13:48:00,
2013-08-22 09:49:00,71.7,64.1,29.94,West,275,1.0,5.0,77,0.00,,,0.00,Wunderground v.1.15,2013-08-22 13:49:00,
2013-08-22 09:52:00,71.8,64.6,29.94,WSW,248,2.0,2.0,78,0.00,,,0.00,Wunderground v.1.15,2013-08-22 13:52:00,
2013-08-22 09:53:00,71.9,64.7,29.94,West,267,0.0,3.0,78,0.00,,,0.00,Wunderground v.1.15,2013-08-22 13:53:00,
2013-08-22 09:54:00,72.0,64.8,29.94,West,267,0.0,3.0,78,0.00,,,0.00,Wunderground v.1.15,2013-08-22 13:54:00,
2013-08-22 09:57:00,72.2,65.7,29.94,West,267,0.0,3.0,80,0.00,,,0.00,Wunderground v.1.15,2013-08-22 13:57:00,
2013-08-22 09:58:00,72.3,65.1,29.94,West,267,3.0,3.0,78,0.00,,,0.00,Wunderground v.1.15,2013-08-22 13:58:00,
2013-08-22 09:59:00,72.4,64.8,29.94,West,259,1.0,3.0,77,0.00,,,0.00,Wunderground v.1.15,2013-08-22 13:59:00,
2013-08-22 10:00:00,72.4,64.0,29.94,WNW,285,2.0,2.0,75,0.00,,,0.00,Wunderground v.1.15,2013-08-22 14:00:00,
2013-08-22 10:02:00,72.4,65.2,29.94,WNW,291,0.0,4.0,78,0.00,,,0.00,Wunderground v.1.15,2013-08-22 14:02:00,
2013-08-22 10:03:00,72.4,64.0,29.94,SE,142,4.0,4.0,75,0.00,,,0.00,Wunderground v.1.15,2013-08-22 14:03:00,
2013-08-22 10:05:00,72.4,64.0,29.94,South,181,0.0,4.0,75,0.00,,,0.00,Wunderground v.1.15,2013-08-22 14:05:00,
2013-08-22 10:06:00,72.4,64.8,29.93,South,181,0.0,4.0,77,0.00,,,0.00,Wunderground v.1.15,2013-08-22 14:06:00,
2013-08-22 10:07:00,72.6,65.3,29.94,West,269,2.0,4.0,78,0.00,,,0.00,Wunderground v.1.15,2013-08-22 14:07:00,
2013-08-22 10:08:00,72.6,65.3,29.94,SW,217,2.0,4.0,78,0.00,,,0.00,Wunderground v.1.15,2013-08-22 14:08:00,
2013-08-22 10:10:00,72.8,64.8,29.93,South,188,0.0,4.0,76,0.00,,,0.00,Wunderground v.1.15,2013-08-22 14:10:00,
2013-08-22 10:11:00,72.9,65.6,29.93,SSE,157,0.0,2.0,78,0.00,,,0.00,Wunderground v.1.15,2013-08-22 14:11:00,
2013-08-22 10:13:00,73.0,65.7,29.93,NW,322,3.0,3.0,78,0.00,,,0.00,Wunderground v.1.15,2013-08-22 14:13:00,
2013-08-22 10:14:00,73.1,64.3,29.93,North,360,2.0,5.0,74,0.00,,,0.00,Wunderground v.1.15,2013-08-22 14:14:00,
2013-08-22 10:15:00,73.1,64.3,29.93,West,264,0.0,5.0,74,0.00,,,0.00,Wunderground v.1.15,2013-08-22 14:15:00,
2013-08-22 10:17:00,73.2,65.2,29.93,WSW,252,1.0,5.0,76,0.00,,,0.00,Wunderground v.1.15,2013-08-22 14:17:00,
2013-08-22 10:18:00,73.3,65.3,29.93,WSW,252,0.0,5.0,76,0.00,,,0.00,Wunderground v.1.15,2013-08-22 14:18:00,
2013-08-22 10:19:00,73.3,65.7,29.93,WSW,252,2.0,5.0,77,0.00,,,0.00,Wunderground v.1.15,2013-08-22 14:19:00,
2013-08-22 10:20:00,73.4,65.4,29.93,WSW,252,0.0,1.0,76,0.00,,,0.00,Wunderground v.1.15,2013-08-22 14:20:00,
2013-08-22 10:22:00,73.5,65.1,29.93,South,177,4.0,4.0,75,0.00,,,0.00,Wunderground v.1.15,2013-08-22 14:22:00,
2013-08-22 10:23:00,73.6,64.8,29.93,SW,223,4.0,4.0,74,0.00,,,0.00,Wunderground v.1.15,2013-08-22 14:23:00,
2013-08-22 10:24:00,73.6,64.0,29.93,SW,229,1.0,4.0,72,0.00,,,0.00,Wunderground v.1.15,2013-08-22 14:24:00,
2013-08-22 10:25:00,73.6,64.0,29.93,SW,229,0.0,4.0,72,0.00,,,0.00,Wunderground v.1.15,2013-08-22 14:25:00,
2013-08-22 10:27:00,73.6,64.8,29.93,WSW,248,3.0,4.0,74,0.00,,,0.00,Wunderground v.1.15,2013-08-22 14:27:00,
2013-08-22 10:28:00,73.6,65.2,29.93,SW,234,0.0,4.0,75,0.00,,,0.00,Wunderground v.1.15,2013-08-22 14:28:00,
2013-08-22 10:30:00,73.6,65.2,29.93,SSW,200,0.0,1.0,75,0.00,,,0.00,Wunderground v.1.15,2013-08-22 14:30:00,
2013-08-22 10:32:00,73.8,65.0,29.93,South,185,2.0,4.0,74,0.00,,,0.00,Wunderground v.1.15,2013-08-22 14:32:00,
2013-08-22 10:34:00,73.8,64.6,29.93,South,187,2.0,5.0,73,0.00,,,0.00,Wunderground v.1.15,2013-08-22 14:34:00,
2013-08-22 10:35:00,73.8,65.0,29.93,WNW,300,0.0,5.0,74,0.00,,,0.00,Wunderground v.1.15,2013-08-22 14:35:00,
2013-08-22 10:36:00,73.8,65.0,29.93,West,265,0.0,6.0,74,0.00,,,0.00,Wunderground v.1.15,2013-08-22 14:36:00,
2013-08-22 10:38:00,74.0,64.8,29.93,SW,235,2.0,6.0,73,0.00,,,0.00,Wunderground v.1.15,2013-08-22 14:38:00,
2013-08-22 10:39:00,74.0,65.2,29.93,South,179,4.0,6.0,74,0.00,,,0.00,Wunderground v.1.15,2013-08-22 14:39:00,
2013-08-22 10:40:00,74.1,64.5,29.93,SW,221,1.0,8.0,72,0.00,,,0.00,Wunderground v.1.15,2013-08-22 14:40:00,
2013-08-22 10:41:00,74.1,64.5,29.93,SSE,155,0.0,8.0,72,0.00,,,0.00,Wunderground v.1.15,2013-08-22 14:41:00,
2013-08-22 10:43:00,74.2,65.0,29.93,SW,223,2.0,8.0,73,0.00,,,0.00,Wunderground v.1.15,2013-08-22 14:43:00,
2013-08-22 10:44:00,74.3,64.7,29.93,SW,223,0.0,8.0,72,0.00,,,0.00,Wunderground v.1.15,2013-08-22 14:44:00,
2013-08-22 10:45:00,74.4,64.8,29.93,SSE,162,1.0,8.0,72,0.00,,,0.00,Wunderground v.1.15,2013-08-22 14:45:00,
2013-08-22 10:46:00,74.4,64.8,29.93,SSE,162,0.0,8.0,72,0.00,,,0.00,Wunderground v.1.15,2013-08-22 14:46:00,
2013-08-22 10:48:00,74.6,65.4,29.93,SW,222,0.0,8.0,73,0.00,,,0.00,Wunderground v.1.15,2013-08-22 14:48:00,
2013-08-22 10:50:00,74.7,64.7,29.93,WNW,289,2.0,8.0,71,0.00,,,0.00,Wunderground v.1.15,2013-08-22 14:50:00,
2013-08-22 10:51:00,74.7,64.3,29.93,WSW,256,2.0,5.0,70,0.00,,,0.00,Wunderground v.1.15,2013-08-22 14:51:00,
2013-08-22 10:53:00,74.6,65.0,29.93,SW,217,1.0,6.0,72,0.00,,,0.00,Wunderground v.1.15,2013-08-22 14:53:00,
2013-08-22 10:55:00,74.6,65.8,29.93,SW,229,0.0,6.0,74,0.00,,,0.00,Wunderground v.1.15,2013-08-22 14:55:00,
2013-08-22 10:56:00,74.7,65.9,29.92,North,360,6.0,8.0,74,0.00,,,0.00,Wunderground v.1.15,2013-08-22 14:56:00,
2013-08-22 10:57:00,74.8,65.2,29.93,SW,233,4.0,8.0,72,0.00,,,0.00,Wunderground v.1.15,2013-08-22 14:57:00,
2013-08-22 10:59:00,74.8,64.8,29.92,West,275,1.0,8.0,71,0.00,,,0.00,Wunderground v.1.15,2013-08-22 14:59:00,
2013-08-22 11:00:00,74.8,64.8,29.92,West,271,1.0,2.0,71,0.00,,,0.00,Wunderground v.1.15,2013-08-22 15:00:00,
2013-08-22 11:02:00,74.9,65.3,29.92,SSW,212,0.0,4.0,72,0.00,,,0.00,Wunderground v.1.15,2013-08-22 15:02:00,
2013-08-22 11:03:00,75.0,65.4,29.92,West,270,1.0,7.0,72,0.00,,,0.00,Wunderground v.1.15,2013-08-22 15:03:00,
2013-08-22 11:04:00,75.0,65.0,29.92,SW,216,3.0,7.0,71,0.00,,,0.00,Wunderground v.1.15,2013-08-22 15:04:00,
2013-08-22 11:05:00,75.0,65.0,29.92,WSW,244,0.0,7.0,71,0.00,,,0.00,Wunderground v.1.15,2013-08-22 15:05:00,
2013-08-22 11:07:00,75.1,65.9,29.92,SW,236,1.0,7.0,73,0.00,,,0.00,Wunderground v.1.15,2013-08-22 15:07:00,
2013-08-22 11:08:00,75.3,66.0,29.92,WSW,249,3.0,7.0,73,0.00,,,0.00,Wunderground v.1.15,2013-08-22 15:08:00,
2013-08-22 11:09:00,75.3,65.2,29.92,West,274,4.0,7.0,71,0.00,,,0.00,Wunderground v.1.15,2013-08-22 15:09:00,
2013-08-22 11:10:00,75.5,65.8,29.92,North,360,0.0,2.0,72,0.00,,,0.00,Wunderground v.1.15,2013-08-22 15:10:00,
2013-08-22 11:12:00,75.7,65.6,29.92,WSW,248,1.0,5.0,71,0.00,,,0.00,Wunderground v.1.15,2013-08-22 15:12:00,
2013-08-22 11:13:00,75.8,64.9,29.92,WSW,251,0.0,5.0,69,0.00,,,0.00,Wunderground v.1.15,2013-08-22 15:13:00,
2013-08-22 11:14:00,75.8,65.3,29.92,West,263,0.0,5.0,70,0.00,,,0.00,Wunderground v.1.15,2013-08-22 15:14:00,
2013-08-22 11:16:00,75.9,65.0,29.92,West,266,2.0,5.0,69,0.00,,,0.00,Wunderground v.1.15,2013-08-22 15:16:00,
2013-08-22 11:17:00,76.0,66.3,29.92,WSW,245,4.0,5.0,72,0.00,,,0.00,Wunderground v.1.15,2013-08-22 15:17:00,
2013-08-22 11:18:00,76.0,66.3,29.92,SW,219,0.0,5.0,72,0.00,,,0.00,Wunderground v.1.15,2013-08-22 15:18:00,
2013-08-22 11:19:00,76.2,65.7,29.92,SW,214,5.0,6.0,70,0.00,,,0.00,Wunderground v.1.15,2013-08-22 15:19:00,
2013-08-22 11:21:00,76.2,64.9,29.92,SSW,207,0.0,4.0,68,0.00,,,0.00,Wunderground v.1.15,2013-08-22 15:21:00,
2013-08-22 11:22:00,76.4,65.5,29.92,SW,234,3.0,4.0,69,0.00,,,0.00,Wunderground v.1.15,2013-08-22 15:22:00,
2013-08-22 11:23:00,76.4,65.1,29.92,SSE,162,1.0,6.0,68,0.00,,,0.00,Wunderground v.1.15,2013-08-22 15:23:00,
2013-08-22 11:24:00,76.4,65.1,29.92,SSW,197,4.0,6.0,68,0.00,,,0.00,Wunderground v.1.15,2013-08-22 15:24:00,
2013-08-22 11:26:00,76.4,65.9,29.92,WSW,258,1.0,9.0,70,0.00,,,0.00,Wunderground v.1.15,2013-08-22 15:26:00,
2013-08-22 11:27:00,76.5,65.1,29.92,SSW,213,0.0,9.0,68,0.00,,,0.00,Wunderground v.1.15,2013-08-22 15:27:00,
2013-08-22 11:28:00,76.6,64.4,29.92,SW,221,11.0,11.0,66,0.00,,,0.00,Wunderground v.1.15,2013-08-22 15:28:00,
2013-08-22 11:30:00,76.6,64.0,29.92,WNW,294,1.0,3.0,65,0.00,,,0.00,Wunderground v.1.15,2013-08-22 15:30:00,
2013-08-22 11:31:00,76.6,64.8,29.92,WNW,292,3.0,4.0,67,0.00,,,0.00,Wunderground v.1.15,2013-08-22 15:31:00,
2013-08-22 11:33:00,76.7,66.2,29.92,South,175,0.0,5.0,70,0.00,,,0.00,Wunderground v.1.15,2013-08-22 15:33:00,
2013-08-22 11:34:00,76.8,65.9,29.92,South,175,0.0,5.0,69,0.00,,,0.00,Wunderground v.1.15,2013-08-22 15:34:00,
2013-08-22 11:35:00,76.9,67.2,29.92,South,175,0.0,5.0,72,0.00,,,0.00,Wunderground v.1.15,2013-08-22 15:35:00,
2013-08-22 11:37:00,77.1,67.0,29.92,SSW,213,2.0,5.0,71,0.00,,,0.00,Wunderground v.1.15,2013-08-22 15:37:00,
2013-08-22 11:38:00,77.2,67.5,29.92,SW,217,3.0,5.0,72,0.00,,,0.00,Wunderground v.1.15,2013-08-22 15:38:00,
2013-08-22 11:39:00,77.2,66.2,29.92,WNW,288,4.0,5.0,69,0.00,,,0.00,Wunderground v.1.15,2013-08-22 15:39:00,
2013-08-22 11:40:00,77.2,65.4,29.92,West,259,2.0,5.0,67,0.00,,,0.00,Wunderground v.1.15,2013-08-22 15:40:00,
2013-08-22 11:42:00,77.1,66.1,29.92,SW,225,1.0,5.0,69,0.00,,,0.00,Wunderground v.1.15,2013-08-22 15:42:00,
2013-08-22 11:43:00,77.0,65.6,29.92,WSW,252,0.0,5.0,68,0.00,,,0.00,Wunderground v.1.15,2013-08-22 15:43:00,
2013-08-22 11:44:00,77.0,66.5,29.92,NNW,335,3.0,5.0,70,0.00,,,0.00,Wunderground v.1.15,2013-08-22 15:44:00,
2013-08-22 11:45:00,76.8,66.3,29.92,SW,227,1.0,5.0,70,0.00,,,0.00,Wunderground v.1.15,2013-08-22 15:45:00,
2013-08-22 11:46:00,76.6,66.1,29.92,SSE,157,2.0,5.0,70,0.00,,,0.00,Wunderground v.1.15,2013-08-22 15:46:00,
2013-08-22 11:48:00,76.3,64.5,29.92,WSW,245,1.0,8.0,67,0.00,,,0.00,Wunderground v.1.15,2013-08-22 15:48:00,
2013-08-22 11:49:00,76.3,63.7,29.92,South,175,0.0,8.0,65,0.00,,,0.00,Wunderground v.1.15,2013-08-22 15:49:00,
2013-08-22 11:50:00,76.3,65.4,29.92,SSW,207,3.0,4.0,69,0.00,,,0.00,Wunderground v.1.15,2013-08-22 15:50:00,
2013-08-22 11:52:00,76.4,65.9,29.92,WSW,246,2.0,4.0,70,0.00,,,0.00,Wunderground v.1.15,2013-08-22 15:52:00,
2013-08-22 11:54:00,76.6,64.8,29.92,West,259,0.0,6.0,67,0.00,,,0.00,Wunderground v.1.15,2013-08-22 15:54:00,
2013-08-22 11:55:00,76.7,66.6,29.92,SSW,204,2.0,6.0,71,0.00,,,0.00,Wunderground v.1.15,2013-08-22 15:55:00,
2013-08-22 11:57:00,76.9,65.5,29.92,WSW,248,1.0,6.0,68,0.00,,,0.00,Wunderground v.1.15,2013-08-22 15:57:00,
2013-08-22 11:59:00,77.1,65.3,29.92,WSW,248,3.0,6.0,67,0.00,,,0.00,Wunderground v.1.15,2013-08-22 15:59:00,
2013-08-22 12:00:00,77.2,66.2,29.92,West,275,1.0,2.0,69,0.00,,,0.00,Wunderground v.1.15,2013-08-22 16:00:00,
2013-08-22 12:02:00,77.3,65.5,29.92,West,278,4.0,6.0,67,0.00,,,0.00,Wunderground v.1.15,2013-08-22 16:02:00,
2013-08-22 12:04:00,77.4,66.8,29.92,SSE,165,1.0,6.0,70,0.00,,,0.00,Wunderground v.1.15,2013-08-22 16:04:00,
2013-08-22 12:05:00,77.3,64.6,29.92,West,269,0.0,6.0,65,0.00,,,0.00,Wunderground v.1.15,2013-08-22 16:05:00,
2013-08-22 12:06:00,77.3,65.1,29.92,West,281,1.0,6.0,66,0.00,,,0.00,Wunderground v.1.15,2013-08-22 16:06:00,
2013-08-22 12:08:00,77.3,64.6,29.92,WSW,257,0.0,6.0,65,0.00,,,0.00,Wunderground v.1.15,2013-08-22 16:08:00,
2013-08-22 12:09:00,77.4,65.1,29.92,SSW,205,1.0,6.0,66,0.00,,,0.00,Wunderground v.1.15,2013-08-22 16:09:00,
2013-08-22 12:10:00,77.4,66.0,29.92,West,274,0.0,2.0,68,0.00,,,0.00,Wunderground v.1.15,2013-08-22 16:10:00,
2013-08-22 12:11:00,77.4,66.0,29.92,West,274,1.0,2.0,68,0.00,,,0.00,Wunderground v.1.15,2013-08-22 16:11:00,
2013-08-22 12:13:00,77.5,67.4,29.91,SW,234,0.0,4.0,71,0.00,,,0.00,Wunderground v.1.15,2013-08-22 16:13:00,
2013-08-22 12:14:00,77.6,65.3,29.91,SSW,203,0.0,8.0,66,0.00,,,0.00,Wunderground v.1.15,2013-08-22 16:14:00,
2013-08-22 12:15:00,77.7,66.7,29.91,WSW,243,0.0,8.0,69,0.00,,,0.00,Wunderground v.1.15,2013-08-22 16:15:00,
2013-08-22 12:16:00,77.7,66.7,29.91,WSW,238,3.0,8.0,69,0.00,,,0.00,Wunderground v.1.15,2013-08-22 16:16:00,
2013-08-22 12:18:00,77.6,64.9,29.91,SW,236,1.0,8.0,65,0.00,,,0.00,Wunderground v.1.15,2013-08-22 16:18:00,
2013-08-22 12:20:00,77.7,66.7,29.91,SSW,212,0.0,6.0,69,0.00,,,0.00,Wunderground v.1.15,2013-08-22 16:20:00,
2013-08-22 12:21:00,77.7,65.9,29.91,WSW,253,0.0,6.0,67,0.00,,,0.00,Wunderground v.1.15,2013-08-22 16:21:00,
2013-08-22 12:24:00,77.8,65.5,29.91,North,360,6.0,9.0,66,0.00,,,0.00,Wunderground v.1.15,2013-08-22 16:24:00,
2013-08-22 12:26:00,77.7,65.0,29.91,South,182,5.0,9.0,65,0.00,,,0.00,Wunderground v.1.15,2013-08-22 16:26:00,
2013-08-22 12:27:00,77.7,64.1,29.91,SW,234,2.0,9.0,63,0.00,,,0.00,Wunderground v.1.15,2013-08-22 16:27:00,
2013-08-22 12:29:00,77.3,63.7,29.91,SW,215,0.0,9.0,63,0.00,,,0.00,Wunderground v.1.15,2013-08-22 16:29:00,
2013-08-22 12:31:00,76.6,64.0,29.91,WSW,239,1.0,9.0,65,0.00,,,0.00,Wunderground v.1.15,2013-08-22 16:31:00,
2013-08-22 12:32:00,76.4,63.3,29.91,SSE,159,0.0,9.0,64,0.00,,,0.00,Wunderground v.1.15,2013-08-22 16:32:00,
2013-08-22 12:34:00,76.0,62.9,29.91,WSW,248,0.0,9.0,64,0.00,,,0.00,Wunderground v.1.15,2013-08-22 16:34:00,
2013-08-22 12:36:00,75.6,63.0,29.91,WSW,257,0.0,9.0,65,0.00,,,0.00,Wunderground v.1.15,2013-08-22 16:36:00,
2013-08-22 12:37:00,75.5,63.3,29.91,South,178,4.0,9.0,66,0.00,,,0.00,Wunderground v.1.15,2013-08-22 16:37:00,
2013-08-22 12:39:00,75.3,62.7,29.91,SSE,147,0.0,9.0,65,0.00,,,0.00,Wunderground v.1.15,2013-08-22 16:39:00,
2013-08-22 12:41:00,75.4,63.7,29.91,SW,216,0.0,5.0,67,0.00,,,0.00,Wunderground v.1.15,2013-08-22 16:41:00,
2013-08-22 12:42:00,75.5,65.0,29.90,WNW,298,3.0,9.0,70,0.00,,,0.00,Wunderground v.1.15,2013-08-22 16:42:00,
2013-08-22 12:44:00,76.0,65.9,29.90,West,270,1.0,9.0,71,0.00,,,0.00,Wunderground v.1.15,2013-08-22 16:44:00,
2013-08-22 12:46:00,76.3,65.0,29.90,SSE,162,5.0,9.0,68,0.00,,,0.00,Wunderground v.1.15,2013-08-22 16:46:00,
2013-08-22 12:47:00,76.5,63.4,29.90,South,190,4.0,9.0,64,0.00,,,0.00,Wunderground v.1.15,2013-08-22 16:47:00,
2013-08-22 12:48:00,76.5,65.6,29.90,SSW,198,3.0,9.0,69,0.00,,,0.00,Wunderground v.1.15,2013-08-22 16:48:00,
2013-08-22 12:50:00,77.0,63.9,29.90,West,275,2.0,5.0,64,0.00,,,0.00,Wunderground v.1.15,2013-08-22 16:50:00,
2013-08-22 12:51:00,77.1,64.0,29.90,SW,236,1.0,5.0,64,0.00,,,0.00,Wunderground v.1.15,2013-08-22 16:51:00,
2013-08-22 12:52:00,77.0,63.9,29.90,SSE,164,1.0,5.0,64,0.00,,,0.00,Wunderground v.1.15,2013-08-22 16:52:00,
2013-08-22 12:53:00,77.0,62.5,29.90,SW,215,1.0,5.0,61,0.00,,,0.00,Wunderground v.1.15,2013-08-22 16:53:00,
2013-08-22 12:54:00,76.9,62.4,29.90,SSW,198,0.0,7.0,61,0.00,,,0.00,Wunderground v.1.15,2013-08-22 16:54:00,
2013-08-22 12:55:00,76.9,62.4,29.90,North,360,1.0,8.0,61,0.00,,,0.00,Wunderground v.1.15,2013-08-22 16:55:00,
2013-08-22 12:56:00,76.8,62.3,29.89,SW,225,4.0,8.0,61,0.00,,,0.00,Wunderground v.1.15,2013-08-22 16:56:00,
2013-08-22 12:58:00,76.8,63.7,29.89,SSE,161,0.0,8.0,64,0.00,,,0.00,Wunderground v.1.15,2013-08-22 16:58:00,
2013-08-22 12:59:00,77.0,65.2,29.89,WSW,249,1.0,8.0,67,0.00,,,0.00,Wunderground v.1.15,2013-08-22 16:59:00,
2013-08-22 13:01:00,77.3,64.6,29.89,West,264,4.0,8.0,65,0.00,,,0.00,Wunderground v.1.15,2013-08-22 17:01:00,
2013-08-22 13:02:00,77.4,63.4,29.89,SW,219,4.0,8.0,62,0.00,,,0.00,Wunderground v.1.15,2013-08-22 17:02:00,
2013-08-22 13:03:00,77.6,63.5,29.89,North,360,5.0,8.0,62,0.00,,,0.00,Wunderground v.1.15,2013-08-22 17:03:00,
2013-08-22 13:04:00,77.6,64.0,29.89,WSW,244,1.0,8.0,63,0.00,,,0.00,Wunderground v.1.15,2013-08-22 17:04:00,
2013-08-22 13:06:00,77.8,64.2,29.89,NW,315,2.0,8.0,63,0.00,,,0.00,Wunderground v.1.15,2013-08-22 17:06:00,
2013-08-22 13:07:00,77.9,65.2,29.89,South,178,6.0,8.0,65,0.00,,,0.00,Wunderground v.1.15,2013-08-22 17:07:00,
2013-08-22 13:08:00,78.0,63.9,29.89,South,182,3.0,8.0,62,0.00,,,0.00,Wunderground v.1.15,2013-08-22 17:08:00,
2013-08-22 13:09:00,78.0,63.0,29.90,North,360,3.0,8.0,60,0.00,,,0.00,Wunderground v.1.15,2013-08-22 17:09:00,
2013-08-22 13:10:00,78.1,63.6,29.89,WSW,241,0.0,3.0,61,0.00,,,0.00,Wunderground v.1.15,2013-08-22 17:10:00,
2013-08-22 13:11:00,78.2,64.1,29.89,WSW,238,0.0,3.0,62,0.00,,,0.00,Wunderground v.1.15,2013-08-22 17:11:00,
2013-08-22 13:12:00,78.3,63.3,29.89,SW,232,2.0,3.0,60,0.00,,,0.00,Wunderground v.1.15,2013-08-22 17:12:00,
2013-08-22 13:13:00,78.3,63.3,29.89,SSW,202,1.0,5.0,60,0.00,,,0.00,Wunderground v.1.15,2013-08-22 17:13:00,
2013-08-22 13:14:00,78.4,64.8,29.89,North,5,0.0,6.0,63,0.00,,,0.00,Wunderground v.1.15,2013-08-22 17:14:00,
2013-08-22 13:15:00,78.5,64.4,29.89,South,181,0.0,6.0,62,0.00,,,0.00,Wunderground v.1.15,2013-08-22 17:15:00,
2013-08-22 13:16:00,78.5,63.9,29.89,North,360,0.0,6.0,61,0.00,,,0.00,Wunderground v.1.15,2013-08-22 17:16:00,
2013-08-22 13:17:00,78.6,64.0,29.89,West,277,0.0,6.0,61,0.00,,,0.00,Wunderground v.1.15,2013-08-22 17:17:00,
2013-08-22 13:19:00,78.7,63.6,29.89,WSW,246,1.0,6.0,60,0.00,,,0.00,Wunderground v.1.15,2013-08-22 17:19:00,
2013-08-22 13:20:00,78.8,63.3,29.89,West,263,3.0,3.0,59,0.00,,,0.00,Wunderground v.1.15,2013-08-22 17:20:00,
2013-08-22 13:21:00,78.8,64.7,29.88,NW,318,5.0,8.0,62,0.00,,,0.00,Wunderground v.1.15,2013-08-22 17:21:00,
2013-08-22 13:23:00,78.9,66.1,29.88,SSW,205,0.0,8.0,65,0.00,,,0.00,Wunderground v.1.15,2013-08-22 17:23:00,
2013-08-22 13:24:00,79.0,64.9,29.88,North,360,7.0,8.0,62,0.00,,,0.00,Wunderground v.1.15,2013-08-22 17:24:00,
2013-08-22 13:25:00,79.1,65.0,29.88,NW,322,2.0,8.0,62,0.00,,,0.00,Wunderground v.1.15,2013-08-22 17:25:00,
2013-08-22 13:26:00,79.0,63.4,29.88,WSW,240,2.0,8.0,59,0.00,,,0.00,Wunderground v.1.15,2013-08-22 17:26:00,
2013-08-22 13:27:00,79.0,63.4,29.88,WSW,257,9.0,9.0,59,0.00,,,0.00,Wunderground v.1.15,2013-08-22 17:27:00,
2013-08-22 13:28:00,78.8,63.3,29.88,SW,225,2.0,9.0,59,0.00,,,0.00,Wunderground v.1.15,2013-08-22 17:28:00,
2013-08-22 13:29:00,78.7,64.1,29.88,West,263,1.0,9.0,61,0.00,,,0.00,Wunderground v.1.15,2013-08-22 17:29:00,
2013-08-22 13:30:00,78.7,62.2,29.88,West,275,1.0,9.0,57,0.00,,,0.00,Wunderground v.1.15,2013-08-22 17:30:00,
2013-08-22 13:31:00,78.6,62.1,29.88,SW,222,6.0,9.0,57,0.00,,,0.00,Wunderground v.1.15,2013-08-22 17:31:00,
2013-08-22 13:32:00,78.6,62.1,29.88,SSE,153,5.0,9.0,57,0.00,,,0.00,Wunderground v.1.15,2013-08-22 17:32:00,
2013-08-22 13:33:00,78.6,63.1,29.88,SW,236,1.0,9.0,59,0.00,,,0.00,Wunderground v.1.15,2013-08-22 17:33:00,
2013-08-22 13:35:00,78.7,63.2,29.87,SW,219,0.0,9.0,59,0.00,,,0.00,Wunderground v.1.15,2013-08-22 17:35:00,
2013-08-22 13:36:00,78.7,61.7,29.88,SW,234,5.0,9.0,56,0.00,,,0.00,Wunderground v.1.15,2013-08-22 17:36:00,
2013-08-22 13:38:00,78.7,62.7,29.87,WNW,288,2.0,9.0,58,0.00,,,0.00,Wunderground v.1.15,2013-08-22 17:38:00,
2013-08-22 13:40:00,78.8,61.8,29.87,SW,229,0.0,2.0,56,0.00,,,0.00,Wunderground v.1.15,2013-08-22 17:40:00,
2013-08-22 13:41:00,78.8,64.2,29.87,NW,315,3.0,3.0,61,0.00,,,0.00,Wunderground v.1.15,2013-08-22 17:41:00,
2013-08-22 13:42:00,79.0,64.9,29.87,WSW,240,0.0,3.0,62,0.00,,,0.00,Wunderground v.1.15,2013-08-22 17:42:00,
2013-08-22 13:44:00,79.1,65.4,29.87,West,269,0.0,3.0,63,0.00,,,0.00,Wunderground v.1.15,2013-08-22 17:44:00,
2013-08-22 13:45:00,79.1,61.5,29.87,SSE,156,5.0,6.0,55,0.00,,,0.00,Wunderground v.1.15,2013-08-22 17:45:00,
2013-08-22 13:46:00,79.2,61.6,29.87,South,190,1.0,6.0,55,0.00,,,0.00,Wunderground v.1.15,2013-08-22 17:46:00,
2013-08-22 13:47:00,79.3,63.7,29.87,WSW,242,4.0,6.0,59,0.00,,,0.00,Wunderground v.1.15,2013-08-22 17:47:00,
2013-08-22 13:49:00,79.3,64.2,29.87,SSW,200,1.0,6.0,60,0.00,,,0.00,Wunderground v.1.15,2013-08-22 17:49:00,
2013-08-22 13:50:00,79.4,62.3,29.86,NE,45,2.0,5.0,56,0.00,,,0.00,Wunderground v.1.15,2013-08-22 17:50:00,
2013-08-22 13:51:00,79.4,63.3,29.86,WSW,246,5.0,5.0,58,0.00,,,0.00,Wunderground v.1.15,2013-08-22 17:51:00,
2013-08-22 13:53:00,79.4,65.2,29.86,SSW,205,6.0,8.0,62,0.00,,,0.00,Wunderground v.1.15,2013-08-22 17:53:00,
2013-08-22 13:54:00,79.4,64.3,29.86,North,360,2.0,8.0,60,0.00,,,0.00,Wunderground v.1.15,2013-08-22 17:54:00,
2013-08-22 13:55:00,79.4,64.8,29.86,West,263,2.0,8.0,61,0.00,,,0.00,Wunderground v.1.15,2013-08-22 17:55:00,
2013-08-22 13:56:00,79.5,65.8,29.86,WSW,254,0.0,8.0,63,0.00,,,0.00,Wunderground v.1.15,2013-08-22 17:56:00,
2013-08-22 13:57:00,79.5,64.4,29.86,West,268,0.0,8.0,60,0.00,,,0.00,Wunderground v.1.15,2013-08-22 17:57:00,
2013-08-22 13:58:00,79.6,64.0,29.86,West,261,1.0,8.0,59,0.00,,,0.00,Wunderground v.1.15,2013-08-22 17:58:00,
2013-08-22 13:59:00,79.6,65.4,29.86,West,260,3.0,8.0,62,0.00,,,0.00,Wunderground v.1.15,2013-08-22 17:59:00,
2013-08-22 14:00:00,79.5,63.9,29.86,SW,227,0.0,4.0,59,0.00,,,0.00,Wunderground v.1.15,2013-08-22 18:00:00,
2013-08-22 14:01:00,79.5,63.9,29.86,SW,235,5.0,7.0,59,0.00,,,0.00,Wunderground v.1.15,2013-08-22 18:01:00,
2013-08-22 14:02:00,79.4,64.8,29.86,WNW,300,5.0,7.0,61,0.00,,,0.00,Wunderground v.1.15,2013-08-22 18:02:00,
2013-08-22 14:03:00,79.4,64.3,29.86,SW,222,6.0,7.0,60,0.00,,,0.00,Wunderground v.1.15,2013-08-22 18:03:00,
2013-08-22 14:04:00,79.4,65.2,29.86,West,279,3.0,7.0,62,0.00,,,0.00,Wunderground v.1.15,2013-08-22 18:04:00,
2013-08-22 14:06:00,79.4,64.8,29.86,SSW,200,2.0,7.0,61,0.00,,,0.00,Wunderground v.1.15,2013-08-22 18:06:00,
2013-08-22 14:07:00,79.1,64.5,29.86,SW,221,3.0,7.0,61,0.00,,,0.00,Wunderground v.1.15,2013-08-22 18:07:00,
2013-08-22 14:08:00,78.9,62.9,29.86,North,360,4.0,7.0,58,0.00,,,0.00,Wunderground v.1.15,2013-08-22 18:08:00,
2013-08-22 14:09:00,78.6,63.1,29.86,West,276,0.0,7.0,59,0.00,,,0.00,Wunderground v.1.15,2013-08-22 18:09:00,
2013-08-22 14:11:00,78.2,63.6,29.86,WSW,253,3.0,5.0,61,0.00,,,0.00,Wunderground v.1.15,2013-08-22 18:11:00,
2013-08-22 14:12:00,78.1,63.6,29.86,West,268,1.0,5.0,61,0.00,,,0.00,Wunderground v.1.15,2013-08-22 18:12:00,
2013-08-22 14:13:00,78.0,64.8,29.86,SW,229,6.0,8.0,64,0.00,,,0.00,Wunderground v.1.15,2013-08-22 18:13:00,
2013-08-22 14:14:00,77.9,63.4,29.86,SW,218,4.0,8.0,61,0.00,,,0.00,Wunderground v.1.15,2013-08-22 18:14:00,
2013-08-22 14:17:00,78.1,64.0,29.86,SW,221,2.0,8.0,62,0.00,,,0.00,Wunderground v.1.15,2013-08-22 18:17:00,
2013-08-22 14:18:00,78.1,63.1,29.85,West,267,2.0,8.0,60,0.00,,,0.00,Wunderground v.1.15,2013-08-22 18:18:00,
2013-08-22 14:19:00,78.2,64.1,29.86,WSW,249,0.0,8.0,62,0.00,,,0.00,Wunderground v.1.15,2013-08-22 18:19:00,
2013-08-22 14:20:00,78.3,63.7,29.86,SW,221,5.0,6.0,61,0.00,,,0.00,Wunderground v.1.15,2013-08-22 18:20:00,
2013-08-22 14:22:00,78.4,65.2,29.86,WNW,287,3.0,9.0,64,0.00,,,0.00,Wunderground v.1.15,2013-08-22 18:22:00,
2013-08-22 14:23:00,78.5,63.9,29.86,North,360,4.0,9.0,61,0.00,,,0.00,Wunderground v.1.15,2013-08-22 18:23:00,
2013-08-22 14:24:00,78.7,63.6,29.85,SSW,203,0.0,9.0,60,0.00,,,0.00,Wunderground v.1.15,2013-08-22 18:24:00,
2013-08-22 14:25:00,78.7,62.7,29.85,SW,214,0.0,9.0,58,0.00,,,0.00,Wunderground v.1.15,2013-08-22 18:25:00,
2013-08-22 14:27:00,78.9,63.4,29.85,WSW,243,0.0,9.0,59,0.00,,,0.00,Wunderground v.1.15,2013-08-22 18:27:00,
2013-08-22 14:28:00,79.0,64.9,29.85,WNW,286,1.0,9.0,62,0.00,,,0.00,Wunderground v.1.15,2013-08-22 18:28:00,
2013-08-22 14:29:00,79.1,64.0,29.85,SSW,211,3.0,10.0,60,0.00,,,0.00,Wunderground v.1.15,2013-08-22 18:29:00,
2013-08-22 14:30:00,79.2,64.1,29.85,SW,216,3.0,5.0,60,0.00,,,0.00,Wunderground v.1.15,2013-08-22 18:30:00,
2013-08-22 14:32:00,79.3,62.2,29.85,West,273,1.0,7.0,56,0.00,,,0.00,Wunderground v.1.15,2013-08-22 18:32:00,
2013-08-22 14:33:00,79.3,64.2,29.85,SSE,158,0.0,7.0,60,0.00,,,0.00,Wunderground v.1.15,2013-08-22 18:33:00,
2013-08-22 14:34:00,79.3,63.7,29.85,WSW,252,6.0,7.0,59,0.00,,,0.00,Wunderground v.1.15,2013-08-22 18:34:00,
2013-08-22 14:35:00,79.3,62.7,29.85,WSW,245,0.0,7.0,57,0.00,,,0.00,Wunderground v.1.15,2013-08-22 18:35:00,
2013-08-22 14:38:00,79.3,64.2,29.85,West,267,2.0,7.0,60,0.00,,,0.00,Wunderground v.1.15,2013-08-22 18:38:00,
2013-08-22 14:39:00,79.4,65.2,29.85,SW,236,4.0,7.0,62,0.00,,,0.00,Wunderground v.1.15,2013-08-22 18:39:00,
2013-08-22 14:42:00,79.3,63.2,29.85,SSE,150,1.0,10.0,58,0.00,,,0.00,Wunderground v.1.15,2013-08-22 18:42:00,
2013-08-22 14:43:00,79.3,62.2,29.85,SW,223,0.0,10.0,56,0.00,,,0.00,Wunderground v.1.15,2013-08-22 18:43:00,
2013-08-22 14:44:00,79.3,63.7,29.85,SSW,211,1.0,10.0,59,0.00,,,0.00,Wunderground v.1.15,2013-08-22 18:44:00,
2013-08-22 14:47:00,79.3,61.7,29.85,South,173,5.0,10.0,55,0.00,,,0.00,Wunderground v.1.15,2013-08-22 18:47:00,
2013-08-22 14:48:00,79.3,63.2,29.85,South,184,3.0,10.0,58,0.00,,,0.00,Wunderground v.1.15,2013-08-22 18:48:00,
2013-08-22 14:49:00,79.3,65.1,29.85,North,360,2.0,10.0,62,0.00,,,0.00,Wunderground v.1.15,2013-08-22 18:49:00,
2013-08-22 14:52:00,79.3,63.2,29.85,SW,214,4.0,5.0,58,0.00,,,0.00,Wunderground v.1.15,2013-08-22 18:52:00,
2013-08-22 14:53:00,79.4,63.8,29.85,WNW,285,0.0,5.0,59,0.00,,,0.00,Wunderground v.1.15,2013-08-22 18:53:00,
2013-08-22 14:54:00,79.4,63.8,29.85,North,360,1.0,5.0,59,0.00,,,0.00,Wunderground v.1.15,2013-08-22 18:54:00,
2013-08-22 14:55:00,79.4,62.8,29.85,West,263,2.0,5.0,57,0.00,,,0.00,Wunderground v.1.15,2013-08-22 18:55:00,
2013-08-22 14:57:00,79.6,64.0,29.85,WSW,252,2.0,6.0,59,0.00,,,0.00,Wunderground v.1.15,2013-08-22 18:57:00,
2013-08-22 14:59:00,79.6,65.4,29.84,WSW,241,1.0,6.0,62,0.00,,,0.00,Wunderground v.1.15,2013-08-22 18:59:00,
2013-08-22 15:00:00,79.6,63.5,29.84,SW,223,0.0,6.0,58,0.00,,,0.00,Wunderground v.1.15,2013-08-22 19:00:00,
2013-08-22 15:02:00,79.7,64.6,29.84,West,267,1.0,4.0,60,0.00,,,0.00,Wunderground v.1.15,2013-08-22 19:02:00,
2013-08-22 15:04:00,79.6,63.0,29.84,West,269,1.0,7.0,57,0.00,,,0.00,Wunderground v.1.15,2013-08-22 19:04:00,
2013-08-22 15:05:00,79.6,63.0,29.84,SW,231,0.0,7.0,57,0.00,,,0.00,Wunderground v.1.15,2013-08-22 19:05:00,
2013-08-22 15:07:00,79.3,62.2,29.84,SW,223,3.0,7.0,56,0.00,,,0.00,Wunderground v.1.15,2013-08-22 19:07:00,
2013-08-22 15:09:00,79.3,63.7,29.84,WSW,242,4.0,8.0,59,0.00,,,0.00,Wunderground v.1.15,2013-08-22 19:09:00,
2013-08-22 15:10:00,79.3,62.7,29.84,SW,217,0.0,3.0,57,0.00,,,0.00,Wunderground v.1.15,2013-08-22 19:10:00,
2013-08-22 15:12:00,79.3,61.2,29.84,West,262,2.0,7.0,54,0.00,,,0.00,Wunderground v.1.15,2013-08-22 19:12:00,
2013-08-22 15:14:00,79.2,62.7,29.84,South,173,5.0,7.0,57,0.00,,,0.00,Wunderground v.1.15,2013-08-22 19:14:00,
2013-08-22 15:15:00,79.3,61.2,29.84,South,185,2.0,7.0,54,0.00,,,0.00,Wunderground v.1.15,2013-08-22 19:15:00,
2013-08-22 15:18:00,79.2,62.1,29.84,WSW,254,2.0,7.0,56,0.00,,,0.00,Wunderground v.1.15,2013-08-22 19:18:00,
2013-08-22 15:19:00,79.1,61.0,29.84,WSW,248,2.0,7.0,54,0.00,,,0.00,Wunderground v.1.15,2013-08-22 19:19:00,
2013-08-22 15:20:00,79.1,63.1,29.84,SW,233,0.0,2.0,58,0.00,,,0.00,Wunderground v.1.15,2013-08-22 19:20:00,
2013-08-22 15:21:00,79.1,63.5,29.84,SW,233,0.0,2.0,59,0.00,,,0.00,Wunderground v.1.15,2013-08-22 19:21:00,
2013-08-22 15:24:00,79.1,62.6,29.84,SSW,200,5.0,9.0,57,0.00,,,0.00,Wunderground v.1.15,2013-08-22 19:24:00,
2013-08-22 15:25:00,79.0,61.5,29.84,South,174,2.0,9.0,55,0.00,,,0.00,Wunderground v.1.15,2013-08-22 19:25:00,
2013-08-22 15:26:00,78.9,62.4,29.83,SW,227,2.0,9.0,57,0.00,,,0.00,Wunderground v.1.15,2013-08-22 19:26:00,
2013-08-22 15:29:00,78.9,63.8,29.83,SSE,157,0.0,9.0,60,0.00,,,0.00,Wunderground v.1.15,2013-08-22 19:29:00,
2013-08-22 15:30:00,78.9,63.8,29.83,SSE,157,0.0,2.0,60,0.00,,,0.00,Wunderground v.1.15,2013-08-22 19:30:00,
2013-08-22 15:31:00,78.9,65.2,29.83,WSW,249,1.0,3.0,63,0.00,,,0.00,Wunderground v.1.15,2013-08-22 19:31:00,
2013-08-22 15:35:00,78.7,63.6,29.83,SW,223,1.0,9.0,60,0.00,,,0.00,Wunderground v.1.15,2013-08-22 19:35:00,
2013-08-22 15:36:00,78.6,61.6,29.83,SW,219,2.0,9.0,56,0.00,,,0.00,Wunderground v.1.15,2013-08-22 19:36:00,
2013-08-22 15:40:00,78.2,61.2,29.83,WSW,248,3.0,4.0,56,0.00,,,0.00,Wunderground v.1.15,2013-08-22 19:40:00,
2013-08-22 15:41:00,78.1,63.6,29.83,WSW,247,0.0,5.0,61,0.00,,,0.00,Wunderground v.1.15,2013-08-22 19:41:00,
2013-08-22 15:42:00,78.1,63.6,29.83,WSW,247,1.0,5.0,61,0.00,,,0.00,Wunderground v.1.15,2013-08-22 19:42:00,
2013-08-22 15:45:00,78.0,62.5,29.83,West,281,0.0,5.0,59,0.00,,,0.00,Wunderground v.1.15,2013-08-22 19:45:00,
2013-08-22 15:46:00,78.2,64.6,29.83,West,281,1.0,5.0,63,0.00,,,0.00,Wunderground v.1.15,2013-08-22 19:46:00,
2013-08-22 15:47:00,78.2,64.6,29.83,West,281,0.0,5.0,63,0.00,,,0.00,Wunderground v.1.15,2013-08-22 19:47:00,
2013-08-22 15:50:00,78.4,64.3,29.83,South,189,2.0,4.0,62,0.00,,,0.00,Wunderground v.1.15,2013-08-22 19:50:00,
2013-08-22 15:51:00,78.4,63.8,29.83,South,190,0.0,4.0,61,0.00,,,0.00,Wunderground v.1.15,2013-08-22 19:51:00,
2013-08-22 15:52:00,78.5,63.9,29.82,WSW,240,3.0,5.0,61,0.00,,,0.00,Wunderground v.1.15,2013-08-22 19:52:00,
2013-08-22 15:55:00,78.8,61.8,29.82,West,274,1.0,9.0,56,0.00,,,0.00,Wunderground v.1.15,2013-08-22 19:55:00,
2013-08-22 15:56:00,78.8,62.3,29.82,WNW,290,1.0,9.0,57,0.00,,,0.00,Wunderground v.1.15,2013-08-22 19:56:00,
2013-08-22 15:57:00,78.9,64.3,29.82,West,265,2.0,9.0,61,0.00,,,0.00,Wunderground v.1.15,2013-08-22 19:57:00,
2013-08-22 16:00:00,79.0,63.9,29.82,WSW,241,1.0,1.0,60,0.00,,,0.00,Wunderground v.1.15,2013-08-22 20:00:00,
2013-08-22 16:01:00,79.1,64.0,29.82,NNW,338,2.0,4.0,60,0.00,,,0.00,Wunderground v.1.15,2013-08-22 20:01:00,
2013-08-22 16:02:00,79.2,63.6,29.82,West,262,3.0,4.0,59,0.00,,,0.00,Wunderground v.1.15,2013-08-22 20:02:00,
2013-08-22 16:03:00,79.2,64.1,29.82,WSW,251,0.0,4.0,60,0.00,,,0.00,Wunderground v.1.15,2013-08-22 20:03:00,
2013-08-22 16:06:00,79.2,63.1,29.82,SSW,195,1.0,7.0,58,0.00,,,0.00,Wunderground v.1.15,2013-08-22 20:06:00,
2013-08-22 16:07:00,79.1,63.1,29.82,WNW,288,2.0,7.0,58,0.00,,,0.00,Wunderground v.1.15,2013-08-22 20:07:00,
2013-08-22 16:09:00,79.1,63.1,29.82,WSW,257,0.0,7.0,58,0.00,,,0.00,Wunderground v.1.15,2013-08-22 20:09:00,
2013-08-22 16:11:00,79.0,63.4,29.82,SSE,161,1.0,3.0,59,0.00,,,0.00,Wunderground v.1.15,2013-08-22 20:11:00,
2013-08-22 16:12:00,79.0,63.4,29.82,South,181,2.0,7.0,59,0.00,,,0.00,Wunderground v.1.15,2013-08-22 20:12:00,
2013-08-22 16:14:00,78.8,62.8,29.82,SSW,211,0.0,7.0,58,0.00,,,0.00,Wunderground v.1.15,2013-08-22 20:14:00,
2013-08-22 16:17:00,78.7,63.2,29.81,WNW,302,0.0,7.0,59,0.00,,,0.00,Wunderground v.1.15,2013-08-22 20:17:00,
2013-08-22 16:18:00,78.7,61.7,29.81,North,360,5.0,7.0,56,0.00,,,0.00,Wunderground v.1.15,2013-08-22 20:18:00,
2013-08-22 16:19:00,78.6,63.1,29.81,WSW,237,2.0,7.0,59,0.00,,,0.00,Wunderground v.1.15,2013-08-22 20:19:00,
2013-08-22 16:22:00,78.4,63.4,29.81,South,169,1.0,9.0,60,0.00,,,0.00,Wunderground v.1.15,2013-08-22 20:22:00,
2013-08-22 16:23:00,78.4,63.4,29.81,South,188,0.0,9.0,60,0.00,,,0.00,Wunderground v.1.15,2013-08-22 20:23:00,
2013-08-22 16:24:00,78.2,62.2,29.81,WSW,243,5.0,9.0,58,0.00,,,0.00,Wunderground v.1.15,2013-08-22 20:24:00,
2013-08-22 16:27:00,77.9,63.4,29.81,WSW,250,2.0,9.0,61,0.00,,,0.00,Wunderground v.1.15,2013-08-22 20:27:00,
2013-08-22 16:28:00,77.8,63.7,29.81,SW,236,0.0,9.0,62,0.00,,,0.00,Wunderground v.1.15,2013-08-22 20:28:00,
2013-08-22 16:29:00,77.8,63.7,29.81,North,360,4.0,9.0,62,0.00,,,0.00,Wunderground v.1.15,2013-08-22 20:29:00,
2013-08-22 16:32:00,77.7,64.1,29.81,West,269,3.0,9.0,63,0.00,,,0.00,Wunderground v.1.15,2013-08-22 20:32:00,
2013-08-22 16:33:00,77.8,64.2,29.81,SW,231,0.0,9.0,63,0.00,,,0.00,Wunderground v.1.15,2013-08-22 20:33:00,
2013-08-22 16:34:00,77.7,63.2,29.81,SE,140,1.0,9.0,61,0.00,,,0.00,Wunderground v.1.15,2013-08-22 20:34:00,
2013-08-22 16:38:00,77.8,65.1,29.81,West,269,3.0,9.0,65,0.00,,,0.00,Wunderground v.1.15,2013-08-22 20:38:00,
2013-08-22 16:39:00,77.7,63.6,29.81,WSW,238,3.0,9.0,62,0.00,,,0.00,Wunderground v.1.15,2013-08-22 20:39:00,
2013-08-22 16:43:00,77.7,63.6,29.81,WSW,244,0.0,4.0,62,0.00,,,0.00,Wunderground v.1.15,2013-08-22 20:43:00,
2013-08-22 16:44:00,77.7,65.9,29.80,WSW,241,0.0,4.0,67,0.00,,,0.00,Wunderground v.1.15,2013-08-22 20:44:00,
2013-08-22 16:48:00,77.6,64.5,29.80,WSW,242,0.0,7.0,64,0.00,,,0.00,Wunderground v.1.15,2013-08-22 20:48:00,
2013-08-22 16:49:00,77.6,64.5,29.80,West,271,0.0,7.0,64,0.00,,,0.00,Wunderground v.1.15,2013-08-22 20:49:00,
2013-08-22 16:50:00,77.5,63.5,29.80,SSE,148,0.0,1.0,62,0.00,,,0.00,Wunderground v.1.15,2013-08-22 20:50:00,
2013-08-22 16:53:00,77.2,64.5,29.80,WSW,240,2.0,11.0,65,0.00,,,0.00,Wunderground v.1.15,2013-08-22 20:53:00,
2013-08-22 16:54:00,77.2,64.5,29.80,SSW,196,5.0,11.0,65,0.00,,,0.00,Wunderground v.1.15,2013-08-22 20:54:00,
2013-08-22 16:55:00,77.0,62.5,29.80,West,263,4.0,11.0,61,0.00,,,0.00,Wunderground v.1.15,2013-08-22 20:55:00,
2013-08-22 16:59:00,76.6,63.5,29.80,SSE,167,0.0,11.0,64,0.00,,,0.00,Wunderground v.1.15,2013-08-22 20:59:00,
2013-08-22 17:00:00,76.6,63.5,29.80,SW,236,4.0,6.0,64,0.00,,,0.00,Wunderground v.1.15,2013-08-22 21:00:00,
2013-08-22 17:04:00,76.5,65.1,29.79,SSE,161,0.0,7.0,68,0.00,,,0.00,Wunderground v.1.15,2013-08-22 21:04:00,
2013-08-22 17:05:00,76.5,64.3,29.79,WSW,254,1.0,7.0,66,0.00,,,0.00,Wunderground v.1.15,2013-08-22 21:05:00,
2013-08-22 17:06:00,76.5,63.9,29.79,South,182,1.0,7.0,65,0.00,,,0.00,Wunderground v.1.15,2013-08-22 21:06:00,
2013-08-22 17:09:00,76.6,63.5,29.79,West,275,3.0,7.0,64,0.00,,,0.00,Wunderground v.1.15,2013-08-22 21:09:00,
2013-08-22 17:10:00,76.6,64.4,29.79,West,261,2.0,2.0,66,0.00,,,0.00,Wunderground v.1.15,2013-08-22 21:10:00,
2013-08-22 17:11:00,76.6,64.8,29.79,ENE,63,1.0,6.0,67,0.00,,,0.00,Wunderground v.1.15,2013-08-22 21:11:00,
2013-08-22 17:14:00,76.6,64.0,29.79,WNW,286,0.0,6.0,65,0.00,,,0.00,Wunderground v.1.15,2013-08-22 21:14:00,
2013-08-22 17:15:00,76.7,64.9,29.80,South,187,1.0,6.0,67,0.00,,,0.00,Wunderground v.1.15,2013-08-22 21:15:00,
2013-08-22 17:16:00,76.8,63.7,29.79,WSW,242,0.0,7.0,64,0.00,,,0.00,Wunderground v.1.15,2013-08-22 21:16:00,
2013-08-22 17:19:00,77.0,65.6,29.79,South,180,2.0,7.0,68,0.00,,,0.00,Wunderground v.1.15,2013-08-22 21:19:00,
2013-08-22 17:20:00,77.0,64.3,29.79,SW,219,3.0,6.0,65,0.00,,,0.00,Wunderground v.1.15,2013-08-22 21:20:00,
2013-08-22 17:21:00,77.0,63.9,29.79,WSW,240,0.0,6.0,64,0.00,,,0.00,Wunderground v.1.15,2013-08-22 21:21:00,
2013-08-22 17:25:00,76.9,63.3,29.80,SSW,210,0.0,7.0,63,0.00,,,0.00,Wunderground v.1.15,2013-08-22 21:25:00,
2013-08-22 17:26:00,76.9,63.3,29.80,SSW,208,3.0,7.0,63,0.00,,,0.00,Wunderground v.1.15,2013-08-22 21:26:00,
2013-08-22 17:31:00,76.6,64.0,29.80,SSW,212,0.0,1.0,65,0.00,,,0.00,Wunderground v.1.15,2013-08-22 21:31:00,
2013-08-22 17:32:00,76.7,65.8,29.80,South,184,0.0,1.0,69,0.00,,,0.00,Wunderground v.1.15,2013-08-22 21:32:00,
2013-08-22 17:33:00,76.7,65.3,29.80,WSW,244,1.0,2.0,68,0.00,,,0.00,Wunderground v.1.15,2013-08-22 21:33:00,
2013-08-22 17:36:00,76.8,66.3,29.79,WSW,244,0.0,2.0,70,0.00,,,0.00,Wunderground v.1.15,2013-08-22 21:36:00,
2013-08-22 17:37:00,76.8,65.0,29.80,WSW,244,0.0,2.0,67,0.00,,,0.00,Wunderground v.1.15,2013-08-22 21:37:00,
2013-08-22 17:38:00,76.8,66.7,29.80,WSW,244,0.0,2.0,71,0.00,,,0.00,Wunderground v.1.15,2013-08-22 21:38:00,
2013-08-22 17:41:00,76.7,66.6,29.80,West,269,2.0,2.0,71,0.00,,,0.00,Wunderground v.1.15,2013-08-22 21:41:00,
2013-08-22 17:42:00,76.7,66.2,29.80,West,274,3.0,4.0,70,0.00,,,0.00,Wunderground v.1.15,2013-08-22 21:42:00,
2013-08-22 17:43:00,76.7,66.2,29.80,West,260,0.0,4.0,70,0.00,,,0.00,Wunderground v.1.15,2013-08-22 21:43:00,
2013-08-22 17:46:00,76.7,67.4,29.80,WSW,253,0.0,4.0,73,0.00,,,0.00,Wunderground v.1.15,2013-08-22 21:46:00,
2013-08-22 17:47:00,76.6,66.1,29.80,SSW,206,0.0,4.0,70,0.00,,,0.00,Wunderground v.1.15,2013-08-22 21:47:00,
2013-08-22 17:48:00,76.6,66.1,29.80,SSW,206,0.0,4.0,70,0.00,,,0.00,Wunderground v.1.15,2013-08-22 21:48:00,
2013-08-22 17:52:00,76.5,66.8,29.80,SW,230,3.0,3.0,72,0.00,,,0.00,Wunderground v.1.15,2013-08-22 21:52:00,
2013-08-22 17:53:00,76.4,65.1,29.79,South,169,5.0,5.0,68,0.00,,,0.00,Wunderground v.1.15,2013-08-22 21:53:00,
2013-08-22 17:54:00,76.4,65.5,29.79,West,265,2.0,5.0,69,0.00,,,0.00,Wunderground v.1.15,2013-08-22 21:54:00,
2013-08-22 17:57:00,76.4,66.3,29.79,SW,228,0.0,5.0,71,0.00,,,0.00,Wunderground v.1.15,2013-08-22 21:57:00,
2013-08-22 17:58:00,76.4,65.5,29.79,WSW,257,2.0,5.0,69,0.00,,,0.00,Wunderground v.1.15,2013-08-22 21:58:00,
2013-08-22 17:59:00,76.4,66.3,29.79,WSW,257,0.0,5.0,71,0.00,,,0.00,Wunderground v.1.15,2013-08-22 21:59:00,
2013-08-22 18:02:00,76.4,66.3,29.79,SW,216,1.0,1.0,71,0.00,,,0.00,Wunderground v.1.15,2013-08-22 22:02:00,
2013-08-22 18:03:00,76.4,67.1,29.79,SW,216,0.0,1.0,73,0.00,,,0.00,Wunderground v.1.15,2013-08-22 22:03:00,
2013-08-22 18:04:00,76.3,65.8,29.79,West,269,1.0,3.0,70,0.00,,,0.00,Wunderground v.1.15,2013-08-22 22:04:00,
2013-08-22 18:05:00,76.3,65.8,29.79,SW,222,6.0,6.0,70,0.00,,,0.00,Wunderground v.1.15,2013-08-22 22:05:00,
2013-08-22 18:08:00,76.1,64.8,29.79,SW,214,0.0,6.0,68,0.00,,,0.00,Wunderground v.1.15,2013-08-22 22:08:00,
2013-08-22 18:10:00,76.0,65.1,29.79,South,189,0.0,1.0,69,0.00,,,0.00,Wunderground v.1.15,2013-08-22 22:10:00,
2013-08-22 18:13:00,75.9,66.2,29.79,WSW,254,0.0,1.0,72,0.00,,,0.00,Wunderground v.1.15,2013-08-22 22:13:00,
2013-08-22 18:14:00,75.9,66.2,29.79,SSW,207,2.0,2.0,72,0.00,,,0.00,Wunderground v.1.15,2013-08-22 22:14:00,
2013-08-22 18:15:00,75.8,66.5,29.79,West,281,0.0,2.0,73,0.00,,,0.00,Wunderground v.1.15,2013-08-22 22:15:00,
2013-08-22 18:18:00,75.6,65.9,29.79,South,171,1.0,5.0,72,0.00,,,0.00,Wunderground v.1.15,2013-08-22 22:18:00,
2013-08-22 18:19:00,75.6,65.5,29.79,SSW,211,1.0,5.0,71,0.00,,,0.00,Wunderground v.1.15,2013-08-22 22:19:00,
2013-08-22 18:20:00,75.6,65.9,29.79,WNW,300,0.0,1.0,72,0.00,,,0.00,Wunderground v.1.15,2013-08-22 22:20:00,
2013-08-22 18:23:00,75.4,66.5,29.79,West,262,0.0,1.0,74,0.00,,,0.00,Wunderground v.1.15,2013-08-22 22:23:00,
2013-08-22 18:24:00,75.4,66.5,29.79,West,265,1.0,3.0,74,0.00,,,0.00,Wunderground v.1.15,2013-08-22 22:24:00,
2013-08-22 18:26:00,75.2,64.7,29.79,WNW,296,0.0,3.0,70,0.00,,,0.00,Wunderground v.1.15,2013-08-22 22:26:00,
2013-08-22 18:29:00,75.0,65.4,29.79,SSW,210,0.0,3.0,72,0.00,,,0.00,Wunderground v.1.15,2013-08-22 22:29:00,
2013-08-22 18:31:00,74.8,65.2,29.79,SSW,202,1.0,6.0,72,0.00,,,0.00,Wunderground v.1.15,2013-08-22 22:31:00,
2013-08-22 18:34:00,74.4,65.2,29.79,South,184,0.0,6.0,73,0.00,,,0.00,Wunderground v.1.15,2013-08-22 22:34:00,
2013-08-22 18:35:00,74.4,65.2,29.79,South,184,0.0,6.0,73,0.00,,,0.00,Wunderground v.1.15,2013-08-22 22:35:00,
2013-08-22 18:36:00,74.3,65.1,29.79,South,184,0.0,6.0,73,0.00,,,0.00,Wunderground v.1.15,2013-08-22 22:36:00,
2013-08-22 18:39:00,74.0,64.8,29.79,South,184,0.0,6.0,73,0.00,,,0.00,Wunderground v.1.15,2013-08-22 22:39:00,
2013-08-22 18:40:00,73.9,65.5,29.79,South,184,0.0,0.0,75,0.00,,,0.00,Wunderground v.1.15,2013-08-22 22:40:00,
2013-08-22 18:41:00,73.7,65.3,29.79,South,184,0.0,1.0,75,0.00,,,0.00,Wunderground v.1.15,2013-08-22 22:41:00,
2013-08-22 18:42:00,73.7,65.3,29.79,South,184,1.0,1.0,75,0.00,,,0.00,Wunderground v.1.15,2013-08-22 22:42:00,
2013-08-22 18:44:00,73.4,64.6,29.79,NW,309,0.0,1.0,74,0.00,,,0.00,Wunderground v.1.15,2013-08-22 22:44:00,
2013-08-22 18:45:00,73.4,64.6,29.79,NW,309,0.0,1.0,74,0.00,,,0.00,Wunderground v.1.15,2013-08-22 22:45:00,
2013-08-22 18:47:00,73.3,64.9,29.79,SW,222,0.0,2.0,75,0.00,,,0.00,Wunderground v.1.15,2013-08-22 22:47:00,
2013-08-22 18:49:00,73.0,64.6,29.79,SW,222,0.0,2.0,75,0.00,,,0.00,Wunderground v.1.15,2013-08-22 22:49:00,
2013-08-22 18:50:00,73.0,65.0,29.79,SW,222,0.0,0.0,76,0.00,,,0.00,Wunderground v.1.15,2013-08-22 22:50:00,
2013-08-22 18:52:00,72.9,65.3,29.79,SW,222,0.0,0.0,77,0.00,,,0.00,Wunderground v.1.15,2013-08-22 22:52:00,
2013-08-22 18:54:00,72.7,65.1,29.79,SW,234,0.0,1.0,77,0.00,,,0.00,Wunderground v.1.15,2013-08-22 22:54:00,
2013-08-22 18:55:00,72.6,65.0,29.79,SSW,209,0.0,1.0,77,0.00,,,0.00,Wunderground v.1.15,2013-08-22 22:55:00,
2013-08-22 18:56:00,72.5,64.5,29.79,West,261,0.0,1.0,76,0.00,,,0.00,Wunderground v.1.15,2013-08-22 22:56:00,
2013-08-22 18:57:00,72.5,64.5,29.79,West,261,0.0,1.0,76,0.00,,,0.00,Wunderground v.1.15,2013-08-22 22:57:00,
2013-08-22 19:00:00,72.3,64.3,29.79,NW,304,0.0,0.0,76,0.00,,,0.00,Wunderground v.1.15,2013-08-22 23:00:00,
2013-08-22 19:01:00,72.2,64.2,29.79,NW,304,0.0,0.0,76,0.00,,,0.00,Wunderground v.1.15,2013-08-22 23:01:00,
2013-08-22 19:02:00,72.2,64.6,29.79,NW,304,0.0,0.0,77,0.00,,,0.00,Wunderground v.1.15,2013-08-22 23:02:00,
2013-08-22 19:03:00,72.2,64.6,29.79,South,181,0.0,1.0,77,0.00,,,0.00,Wunderground v.1.15,2013-08-22 23:03:00,
2013-08-22 19:06:00,72.0,64.0,29.79,South,184,0.0,1.0,76,0.00,,,0.00,Wunderground v.1.15,2013-08-22 23:06:00,
2013-08-22 19:07:00,72.0,64.4,29.79,South,184,0.0,1.0,77,0.00,,,0.00,Wunderground v.1.15,2013-08-22 23:07:00,
2013-08-22 19:08:00,72.0,64.4,29.79,South,184,0.0,1.0,77,0.00,,,0.00,Wunderground v.1.15,2013-08-22 23:08:00,
2013-08-22 19:11:00,71.9,64.3,29.79,West,279,0.0,0.0,77,0.00,,,0.00,Wunderground v.1.15,2013-08-22 23:11:00,
2013-08-22 19:13:00,71.7,64.5,29.80,WSW,243,8.0,8.0,78,0.00,,,0.00,Wunderground v.1.15,2013-08-22 23:13:00,
2013-08-22 19:17:00,71.3,64.1,29.80,West,281,0.0,9.0,78,0.00,,,0.00,Wunderground v.1.15,2013-08-22 23:17:00,
2013-08-22 19:18:00,71.2,64.7,29.80,North,9,9.0,11.0,80,0.00,,,0.00,Wunderground v.1.15,2013-08-22 23:18:00,
2013-08-22 19:22:00,70.2,64.1,29.80,NNE,17,0.0,8.0,81,0.00,,,0.00,Wunderground v.1.15,2013-08-22 23:22:00,
2013-08-22 19:23:00,69.9,64.2,29.80,NNE,29,0.0,8.0,82,0.00,,,0.00,Wunderground v.1.15,2013-08-22 23:23:00,
2013-08-22 19:27:00,69.1,63.7,29.80,NE,37,0.0,9.0,83,0.00,,,0.00,Wunderground v.1.15,2013-08-22 23:27:00,
2013-08-22 19:28:00,69.0,64.0,29.80,NNE,13,2.0,9.0,84,0.00,,,0.00,Wunderground v.1.15,2013-08-22 23:28:00,
2013-08-22 19:29:00,68.6,63.6,29.80,ESE,114,1.0,9.0,84,0.00,,,0.00,Wunderground v.1.15,2013-08-22 23:29:00,
2013-08-22 19:32:00,67.9,63.6,29.80,NNE,23,4.0,4.0,86,0.00,,,0.00,Wunderground v.1.15,2013-08-22 23:32:00,
2013-08-22 19:33:00,67.8,63.5,29.80,SSW,210,4.0,4.0,86,0.00,,,0.00,Wunderground v.1.15,2013-08-22 23:33:00,
2013-08-22 19:34:00,67.6,63.3,29.80,WNW,290,0.0,4.0,86,0.00,,,0.00,Wunderground v.1.15,2013-08-22 23:34:00,
2013-08-22 19:38:00,67.2,63.2,29.80,NE,49,0.0,6.0,87,0.00,,,0.00,Wunderground v.1.15,2013-08-22 23:38:00,
2013-08-22 19:39:00,67.1,63.1,29.80,SSW,205,3.0,6.0,87,0.00,,,0.00,Wunderground v.1.15,2013-08-22 23:39:00,
2013-08-22 19:43:00,66.6,63.3,29.80,NNW,348,0.0,9.0,89,0.00,,,0.00,Wunderground v.1.15,2013-08-22 23:43:00,
2013-08-22 19:44:00,66.5,63.2,29.80,SW,227,3.0,9.0,89,0.00,,,0.00,Wunderground v.1.15,2013-08-22 23:44:00,
2013-08-22 19:45:00,66.4,63.1,29.80,NW,323,0.0,9.0,89,0.00,,,0.00,Wunderground v.1.15,2013-08-22 23:45:00,
2013-08-22 19:48:00,66.1,63.4,29.80,WNW,300,6.0,9.0,91,0.00,,,0.00,Wunderground v.1.15,2013-08-22 23:48:00,
2013-08-22 19:49:00,66.0,63.3,29.80,NW,314,0.0,9.0,91,0.00,,,0.00,Wunderground v.1.15,2013-08-22 23:49:00,
2013-08-22 19:50:00,66.0,63.3,29.80,NW,314,0.0,9.0,91,0.00,,,0.00,Wunderground v.1.15,2013-08-22 23:50:00,
2013-08-22 19:53:00,65.8,63.4,29.80,North,9,1.0,4.0,92,0.00,,,0.00,Wunderground v.1.15,2013-08-22 23:53:00,
2013-08-22 19:54:00,65.8,63.4,29.80,North,360,1.0,11.0,92,0.00,,,0.00,Wunderground v.1.15,2013-08-22 23:54:00,
2013-08-22 19:55:00,65.8,63.4,29.80,NW,323,4.0,14.0,92,0.00,,,0.00,Wunderground v.1.15,2013-08-22 23:55:00,
2013-08-22 19:56:00,65.8,63.4,29.79,NNE,24,2.0,14.0,92,0.00,,,0.00,Wunderground v.1.15,2013-08-22 23:56:00,
2013-08-22 19:58:00,66.1,63.4,29.79,SW,219,1.0,14.0,91,0.00,,,0.00,Wunderground v.1.15,2013-08-22 23:58:00,
2013-08-22 19:59:00,66.2,63.5,29.79,NNW,327,0.0,14.0,91,0.00,,,0.00,Wunderground v.1.15,2013-08-22 23:59:00,
2013-08-22 20:00:00,66.2,63.5,29.79,NE,42,0.0,3.0,91,0.00,,,0.00,Wunderground v.1.15,2013-08-23 00:00:00,
2013-08-22 20:01:00,66.3,63.6,29.79,North,350,6.0,6.0,91,0.00,,,0.00,Wunderground v.1.15,2013-08-23 00:01:00,
2013-08-22 20:03:00,66.2,63.5,29.79,NNW,347,1.0,8.0,91,0.00,,,0.01,Wunderground v.1.15,2013-08-23 00:03:00,
2013-08-22 20:05:00,66.2,63.8,29.79,South,190,3.0,8.0,92,0.00,,,0.01,Wunderground v.1.15,2013-08-23 00:05:00,
2013-08-22 20:06:00,66.1,63.7,29.79,NNE,15,0.0,8.0,92,0.00,,,0.01,Wunderground v.1.15,2013-08-23 00:06:00,
2013-08-22 20:09:00,66.1,63.7,29.79,SW,217,0.0,8.0,92,0.00,,,0.01,Wunderground v.1.15,2013-08-23 00:09:00,
2013-08-22 20:10:00,66.1,63.7,29.79,SSW,194,0.0,1.0,92,0.00,,,0.01,Wunderground v.1.15,2013-08-23 00:10:00,
2013-08-22 20:11:00,66.1,63.7,29.79,NW,322,0.0,1.0,92,0.00,,,0.01,Wunderground v.1.15,2013-08-23 00:11:00,
2013-08-22 20:12:00,66.1,63.7,29.79,North,351,4.0,4.0,92,0.00,,,0.01,Wunderground v.1.15,2013-08-23 00:12:00,
2013-08-22 20:14:00,66.0,63.6,29.79,WSW,244,0.0,5.0,92,0.00,,,0.01,Wunderground v.1.15,2013-08-23 00:14:00,
2013-08-22 20:15:00,66.0,63.6,29.79,WSW,244,0.0,5.0,92,0.00,,,0.01,Wunderground v.1.15,2013-08-23 00:15:00,
2013-08-22 20:16:00,66.0,63.9,29.79,SE,126,0.0,5.0,93,0.00,,,0.01,Wunderground v.1.15,2013-08-23 00:16:00,
2013-08-22 20:17:00,66.0,63.9,29.79,SE,126,0.0,5.0,93,0.00,,,0.01,Wunderground v.1.15,2013-08-23 00:17:00,
2013-08-22 20:20:00,65.9,63.8,29.79,ENE,69,1.0,1.0,93,0.00,,,0.01,Wunderground v.1.15,2013-08-23 00:20:00,
2013-08-22 20:21:00,65.9,63.8,29.79,WNW,289,3.0,4.0,93,0.00,,,0.01,Wunderground v.1.15,2013-08-23 00:21:00,
2013-08-22 20:23:00,65.9,63.8,29.79,NNE,28,5.0,6.0,93,0.00,,,0.01,Wunderground v.1.15,2013-08-23 00:23:00,
2013-08-22 20:25:00,65.9,63.8,29.80,East,88,2.0,11.0,93,0.00,,,0.01,Wunderground v.1.15,2013-08-23 00:25:00,
2013-08-22 20:26:00,65.9,63.8,29.80,NE,35,0.0,11.0,93,0.00,,,0.01,Wunderground v.1.15,2013-08-23 00:26:00,
2013-08-22 20:28:00,65.9,63.8,29.79,NW,309,1.0,11.0,93,0.00,,,0.01,Wunderground v.1.15,2013-08-23 00:28:00,
2013-08-22 20:30:00,66.0,63.9,29.79,WSW,240,0.0,2.0,93,0.00,,,0.01,Wunderground v.1.15,2013-08-23 00:30:00,
2013-08-22 20:31:00,66.0,63.9,29.80,NW,306,2.0,3.0,93,0.00,,,0.01,Wunderground v.1.15,2013-08-23 00:31:00,
2013-08-22 20:33:00,66.0,63.9,29.80,ENE,74,0.0,6.0,93,0.00,,,0.01,Wunderground v.1.15,2013-08-23 00:33:00,
2013-08-22 20:36:00,66.0,63.9,29.80,SW,235,0.0,6.0,93,0.00,,,0.01,Wunderground v.1.15,2013-08-23 00:36:00,
2013-08-22 20:39:00,66.0,63.9,29.80,SSE,163,2.0,6.0,93,0.00,,,0.01,Wunderground v.1.15,2013-08-23 00:39:00,
2013-08-22 20:41:00,66.0,63.9,29.80,SSW,198,0.0,2.0,93,0.00,,,0.01,Wunderground v.1.15,2013-08-23 00:41:00,
2013-08-22 20:42:00,66.0,63.9,29.80,SSW,198,0.0,2.0,93,0.00,,,0.01,Wunderground v.1.15,2013-08-23 00:42:00,
2013-08-22 20:45:00,65.9,63.8,29.80,SE,144,0.0,2.0,93,0.00,,,0.01,Wunderground v.1.15,2013-08-23 00:45:00,
2013-08-22 20:46:00,65.9,63.8,29.80,South,190,0.0,2.0,93,0.00,,,0.01,Wunderground v.1.15,2013-08-23 00:46:00,
2013-08-22 20:47:00,65.9,63.8,29.80,South,190,0.0,2.0,93,0.00,,,0.01,Wunderground v.1.15,2013-08-23 00:47:00,
2013-08-22 20:51:00,65.7,63.6,29.80,SSE,163,0.0,1.0,93,0.00,,,0.01,Wunderground v.1.15,2013-08-23 00:51:00,
2013-08-22 20:52:00,65.7,63.6,29.80,SSE,163,0.0,1.0,93,0.00,,,0.01,Wunderground v.1.15,2013-08-23 00:52:00,
2013-08-22 20:53:00,65.6,63.5,29.80,SSE,163,0.0,1.0,93,0.00,,,0.01,Wunderground v.1.15,2013-08-23 00:53:00,
2013-08-22 20:56:00,65.6,63.8,29.80,SSE,163,0.0,1.0,94,0.00,,,0.01,Wunderground v.1.15,2013-08-23 00:56:00,
2013-08-22 20:57:00,65.5,63.7,29.80,SSE,163,0.0,1.0,94,0.00,,,0.01,Wunderground v.1.15,2013-08-23 00:57:00,
2013-08-22 20:58:00,65.5,63.7,29.80,West,265,0.0,3.0,94,0.00,,,0.01,Wunderground v.1.15,2013-08-23 00:58:00,
2013-08-22 21:02:00,65.4,63.6,29.80,South,174,1.0,4.0,94,0.00,,,0.01,Wunderground v.1.15,2013-08-23 01:02:00,
2013-08-22 21:03:00,65.4,63.6,29.80,SSE,168,0.0,4.0,94,0.00,,,0.01,Wunderground v.1.15,2013-08-23 01:03:00,
2013-08-22 21:07:00,65.3,63.5,29.81,West,263,0.0,4.0,94,0.00,,,0.01,Wunderground v.1.15,2013-08-23 01:07:00,
2013-08-22 21:08:00,65.3,63.5,29.80,SSW,204,0.0,4.0,94,0.00,,,0.01,Wunderground v.1.15,2013-08-23 01:08:00,
2013-08-22 21:09:00,65.3,63.5,29.80,SSW,204,0.0,4.0,94,0.00,,,0.01,Wunderground v.1.15,2013-08-23 01:09:00,
2013-08-22 21:12:00,65.3,63.5,29.80,WSW,246,0.0,1.0,94,0.00,,,0.01,Wunderground v.1.15,2013-08-23 01:12:00,
2013-08-22 21:13:00,65.3,63.5,29.81,WSW,246,0.0,1.0,94,0.00,,,0.01,Wunderground v.1.15,2013-08-23 01:13:00,
2013-08-22 21:14:00,65.3,63.5,29.81,SW,219,0.0,1.0,94,0.00,,,0.01,Wunderground v.1.15,2013-08-23 01:14:00,
2013-08-22 21:17:00,65.3,63.5,29.81,SW,219,0.0,1.0,94,0.00,,,0.01,Wunderground v.1.15,2013-08-23 01:17:00,
2013-08-22 21:18:00,65.3,63.5,29.81,SW,219,1.0,1.0,94,0.00,,,0.01,Wunderground v.1.15,2013-08-23 01:18:00,
2013-08-22 21:19:00,65.3,63.5,29.81,West,278,0.0,2.0,94,0.00,,,0.01,Wunderground v.1.15,2013-08-23 01:19:00,
2013-08-22 21:23:00,65.3,63.5,29.81,West,278,0.0,1.0,94,0.00,,,0.01,Wunderground v.1.15,2013-08-23 01:23:00,
2013-08-22 21:24:00,65.3,63.5,29.81,West,278,0.0,1.0,94,0.00,,,0.01,Wunderground v.1.15,2013-08-23 01:24:00,
2013-08-22 21:28:00,65.2,63.4,29.81,West,278,0.0,1.0,94,0.00,,,0.01,Wunderground v.1.15,2013-08-23 01:28:00,
2013-08-22 21:29:00,65.2,63.4,29.81,West,278,0.0,1.0,94,0.00,,,0.01,Wunderground v.1.15,2013-08-23 01:29:00,
2013-08-22 21:33:00,65.2,63.4,29.82,West,278,0.0,0.0,94,0.00,,,0.01,Wunderground v.1.15,2013-08-23 01:33:00,
2013-08-22 21:34:00,65.2,63.4,29.82,West,278,0.0,0.0,94,0.00,,,0.01,Wunderground v.1.15,2013-08-23 01:34:00,
2013-08-22 21:35:00,65.2,63.4,29.82,West,278,0.0,0.0,94,0.00,,,0.01,Wunderground v.1.15,2013-08-23 01:35:00,
2013-08-22 21:38:00,65.1,63.3,29.82,South,183,0.0,1.0,94,0.00,,,0.01,Wunderground v.1.15,2013-08-23 01:38:00,
2013-08-22 21:39:00,65.2,63.4,29.82,South,183,0.0,1.0,94,0.00,,,0.01,Wunderground v.1.15,2013-08-23 01:39:00,
2013-08-22 21:40:00,65.1,63.6,29.82,South,182,0.0,0.0,95,0.00,,,0.01,Wunderground v.1.15,2013-08-23 01:40:00,
2013-08-22 21:43:00,65.1,63.6,29.82,South,185,0.0,2.0,95,0.00,,,0.01,Wunderground v.1.15,2013-08-23 01:43:00,
2013-08-22 21:44:00,65.1,63.6,29.82,South,185,0.0,2.0,95,0.00,,,0.01,Wunderground v.1.15,2013-08-23 01:44:00,
2013-08-22 21:45:00,65.1,63.6,29.82,South,185,0.0,2.0,95,0.00,,,0.01,Wunderground v.1.15,2013-08-23 01:45:00,
2013-08-22 21:49:00,65.1,63.6,29.82,WSW,250,0.0,2.0,95,0.00,,,0.01,Wunderground v.1.15,2013-08-23 01:49:00,
2013-08-22 21:50:00,65.0,63.5,29.82,SW,219,1.0,2.0,95,0.00,,,0.01,Wunderground v.1.15,2013-08-23 01:50:00,
2013-08-22 21:51:00,65.0,63.5,29.82,East,94,1.0,2.0,95,0.00,,,0.01,Wunderground v.1.15,2013-08-23 01:51:00,
2013-08-22 21:54:00,64.9,63.4,29.82,WNW,290,0.0,3.0,95,0.00,,,0.01,Wunderground v.1.15,2013-08-23 01:54:00,
2013-08-22 21:55:00,64.9,63.4,29.82,WNW,290,1.0,3.0,95,0.00,,,0.01,Wunderground v.1.15,2013-08-23 01:55:00,
2013-08-22 21:56:00,64.9,63.4,29.82,WNW,290,0.0,3.0,95,0.00,,,0.01,Wunderground v.1.15,2013-08-23 01:56:00,
2013-08-22 21:59:00,64.9,63.4,29.82,SSW,208,0.0,3.0,95,0.00,,,0.01,Wunderground v.1.15,2013-08-23 01:59:00,
2013-08-22 22:00:00,64.9,63.4,29.82,SSW,208,0.0,1.0,95,0.00,,,0.01,Wunderground v.1.15,2013-08-23 02:00:00,
2013-08-22 22:01:00,64.9,63.4,29.82,SSW,208,0.0,1.0,95,0.00,,,0.01,Wunderground v.1.15,2013-08-23 02:01:00,
2013-08-22 22:04:00,64.8,63.3,29.81,SSW,208,0.0,1.0,95,0.00,,,0.01,Wunderground v.1.15,2013-08-23 02:04:00,
2013-08-22 22:05:00,64.8,63.3,29.81,SSW,208,0.0,1.0,95,0.00,,,0.01,Wunderground v.1.15,2013-08-23 02:05:00,
2013-08-22 22:06:00,64.8,63.3,29.81,SSW,208,0.0,1.0,95,0.00,,,0.01,Wunderground v.1.15,2013-08-23 02:06:00,
2013-08-22 22:07:00,64.8,63.3,29.81,SSW,208,0.0,1.0,95,0.00,,,0.01,Wunderground v.1.15,2013-08-23 02:07:00,
2013-08-22 22:10:00,64.7,63.2,29.81,NW,322,0.0,1.0,95,0.00,,,0.01,Wunderground v.1.15,2013-08-23 02:10:00,
2013-08-22 22:11:00,64.6,63.1,29.81,NW,322,0.0,0.0,95,0.00,,,0.01,Wunderground v.1.15,2013-08-23 02:11:00,
2013-08-22 22:12:00,64.6,63.1,29.81,NW,322,0.0,1.0,95,0.00,,,0.01,Wunderground v.1.15,2013-08-23 02:12:00,
2013-08-22 22:13:00,64.5,63.0,29.80,NW,322,0.0,1.0,95,0.00,,,0.01,Wunderground v.1.15,2013-08-23 02:13:00,
2013-08-22 22:15:00,64.5,63.0,29.81,NW,322,1.0,1.0,95,0.00,,,0.01,Wunderground v.1.15,2013-08-23 02:15:00,
2013-08-22 22:16:00,64.5,63.0,29.81,NW,322,0.0,1.0,95,0.00,,,0.01,Wunderground v.1.15,2013-08-23 02:16:00,
2013-08-22 22:17:00,64.4,62.9,29.81,NW,322,0.0,1.0,95,0.00,,,0.01,Wunderground v.1.15,2013-08-23 02:17:00,
2013-08-22 22:18:00,64.4,62.9,29.81,WSW,254,3.0,3.0,95,0.00,,,0.01,Wunderground v.1.15,2013-08-23 02:18:00,
2013-08-22 22:20:00,64.4,62.9,29.81,SSW,208,0.0,1.0,95,0.00,,,0.01,Wunderground v.1.15,2013-08-23 02:20:00,
2013-08-22 22:21:00,64.4,62.9,29.81,WNW,290,0.0,4.0,95,0.00,,,0.01,Wunderground v.1.15,2013-08-23 02:21:00,
2013-08-22 22:22:00,64.3,62.8,29.81,NW,313,0.0,4.0,95,0.00,,,0.01,Wunderground v.1.15,2013-08-23 02:22:00,
2013-08-22 22:23:00,64.3,62.8,29.81,NNE,19,1.0,4.0,95,0.00,,,0.01,Wunderground v.1.15,2013-08-23 02:23:00,
2013-08-22 22:25:00,64.3,62.8,29.81,WNW,292,0.0,4.0,95,0.00,,,0.01,Wunderground v.1.15,2013-08-23 02:25:00,
2013-08-22 22:27:00,64.3,62.8,29.81,SSW,201,0.0,4.0,95,0.00,,,0.01,Wunderground v.1.15,2013-08-23 02:27:00,
2013-08-22 22:28:00,64.3,62.8,29.80,NNW,329,0.0,5.0,95,0.00,,,0.01,Wunderground v.1.15,2013-08-23 02:28:00,
2013-08-22 22:31:00,64.3,62.8,29.80,NNW,335,0.0,1.0,95,0.00,,,0.01,Wunderground v.1.15,2013-08-23 02:31:00,
2013-08-22 22:32:00,64.3,62.8,29.80,WNW,298,2.0,3.0,95,0.00,,,0.01,Wunderground v.1.15,2013-08-23 02:32:00,
2013-08-22 22:34:00,64.3,62.8,29.81,West,271,1.0,3.0,95,0.00,,,0.01,Wunderground v.1.15,2013-08-23 02:34:00,
2013-08-22 22:36:00,64.3,62.8,29.81,WSW,251,0.0,3.0,95,0.00,,,0.01,Wunderground v.1.15,2013-08-23 02:36:00,
2013-08-22 22:37:00,64.2,62.7,29.81,NW,306,0.0,3.0,95,0.00,,,0.01,Wunderground v.1.15,2013-08-23 02:37:00,
2013-08-22 22:39:00,64.2,62.7,29.81,West,278,2.0,3.0,95,0.00,,,0.01,Wunderground v.1.15,2013-08-23 02:39:00,
2013-08-22 22:41:00,64.2,62.7,29.81,SE,133,0.0,3.0,95,0.00,,,0.01,Wunderground v.1.15,2013-08-23 02:41:00,
2013-08-22 22:42:00,64.2,62.7,29.81,South,181,0.0,3.0,95,0.00,,,0.01,Wunderground v.1.15,2013-08-23 02:42:00,
2013-08-22 22:43:00,64.2,62.7,29.81,SSW,194,0.0,3.0,95,0.00,,,0.01,Wunderground v.1.15,2013-08-23 02:43:00,
2013-08-22 22:44:00,64.2,62.4,29.81,WSW,248,0.0,3.0,94,0.00,,,0.01,Wunderground v.1.15,2013-08-23 02:44:00,
2013-08-22 22:47:00,64.2,62.7,29.81,SW,231,0.0,3.0,95,0.00,,,0.01,Wunderground v.1.15,2013-08-23 02:47:00,
2013-08-22 22:48:00,64.2,62.4,29.81,SW,231,0.0,3.0,94,0.00,,,0.01,Wunderground v.1.15,2013-08-23 02:48:00,
2013-08-22 22:49:00,64.2,62.7,29.81,SW,230,0.0,3.0,95,0.00,,,0.01,Wunderground v.1.15,2013-08-23 02:49:00,
2013-08-22 22:52:00,64.2,62.7,29.81,South,177,0.0,1.0,95,0.00,,,0.01,Wunderground v.1.15,2013-08-23 02:52:00,
2013-08-22 22:53:00,64.2,62.7,29.81,South,180,0.0,1.0,95,0.00,,,0.01,Wunderground v.1.15,2013-08-23 02:53:00,
2013-08-22 22:54:00,64.1,62.6,29.81,South,180,0.0,1.0,95,0.00,,,0.01,Wunderground v.1.15,2013-08-23 02:54:00,
2013-08-22 22:58:00,64.1,62.6,29.81,SSW,199,0.0,1.0,95,0.00,,,0.01,Wunderground v.1.15,2013-08-23 02:58:00,
2013-08-22 22:59:00,64.1,62.6,29.81,SSW,199,0.0,1.0,95,0.00,,,0.01,Wunderground v.1.15,2013-08-23 02:59:00,
2013-08-22 23:03:00,64.0,62.5,29.81,WNW,293,0.0,2.0,95,0.00,,,0.01,Wunderground v.1.15,2013-08-23 03:03:00,
2013-08-22 23:04:00,64.0,62.5,29.81,WNW,288,0.0,4.0,95,0.00,,,0.01,Wunderground v.1.15,2013-08-23 03:04:00,
2013-08-22 23:05:00,64.0,62.5,29.81,WNW,291,1.0,4.0,95,0.00,,,0.01,Wunderground v.1.15,2013-08-23 03:05:00,
2013-08-22 23:08:00,64.0,62.5,29.81,SW,232,0.0,4.0,95,0.00,,,0.01,Wunderground v.1.15,2013-08-23 03:08:00,
2013-08-22 23:09:00,63.9,62.4,29.81,SW,232,0.0,4.0,95,0.00,,,0.01,Wunderground v.1.15,2013-08-23 03:09:00,
2013-08-22 23:10:00,63.9,62.4,29.81,SW,232,0.0,0.0,95,0.00,,,0.01,Wunderground v.1.15,2013-08-23 03:10:00,
2013-08-22 23:13:00,63.9,62.4,29.81,West,271,0.0,3.0,95,0.00,,,0.01,Wunderground v.1.15,2013-08-23 03:13:00,
2013-08-22 23:14:00,63.9,62.4,29.81,West,271,0.0,3.0,95,0.00,,,0.01,Wunderground v.1.15,2013-08-23 03:14:00,
2013-08-22 23:15:00,63.8,62.3,29.81,West,267,0.0,5.0,95,0.00,,,0.01,Wunderground v.1.15,2013-08-23 03:15:00,
2013-08-22 23:19:00,63.8,62.3,29.81,WSW,242,0.0,5.0,95,0.00,,,0.01,Wunderground v.1.15,2013-08-23 03:19:00,
2013-08-22 23:20:00,63.8,62.3,29.81,SSW,204,1.0,1.0,95,0.00,,,0.01,Wunderground v.1.15,2013-08-23 03:20:00,
2013-08-22 23:21:00,63.8,62.3,29.81,SSW,204,0.0,1.0,95,0.00,,,0.01,Wunderground v.1.15,2013-08-23 03:21:00,
2013-08-22 23:24:00,63.7,62.5,29.81,SSW,194,0.0,5.0,96,0.00,,,0.01,Wunderground v.1.15,2013-08-23 03:24:00,
2013-08-22 23:25:00,63.7,62.2,29.81,South,173,1.0,5.0,95,0.00,,,0.01,Wunderground v.1.15,2013-08-23 03:25:00,
2013-08-22 23:26:00,63.6,62.1,29.81,SW,225,0.0,5.0,95,0.00,,,0.01,Wunderground v.1.15,2013-08-23 03:26:00,
2013-08-22 23:29:00,63.6,62.1,29.81,SW,225,0.0,5.0,95,0.00,,,0.01,Wunderground v.1.15,2013-08-23 03:29:00,
2013-08-22 23:30:00,63.6,62.1,29.81,SW,225,0.0,1.0,95,0.00,,,0.01,Wunderground v.1.15,2013-08-23 03:30:00,
2013-08-22 23:31:00,63.6,62.1,29.81,SW,225,0.0,1.0,95,0.00,,,0.01,Wunderground v.1.15,2013-08-23 03:31:00,
2013-08-22 23:34:00,63.6,62.1,29.81,SW,225,0.0,1.0,95,0.00,,,0.01,Wunderground v.1.15,2013-08-23 03:34:00,
2013-08-22 23:35:00,63.6,62.1,29.81,SSW,202,1.0,1.0,95,0.00,,,0.01,Wunderground v.1.15,2013-08-23 03:35:00,
2013-08-22 23:36:00,63.5,62.0,29.81,SSW,202,0.0,1.0,95,0.00,,,0.01,Wunderground v.1.15,2013-08-23 03:36:00,
2013-08-22 23:39:00,63.4,61.9,29.82,NW,313,0.0,4.0,95,0.00,,,0.01,Wunderground v.1.15,2013-08-23 03:39:00,
2013-08-22 23:40:00,63.4,61.9,29.82,SW,227,2.0,2.0,95,0.00,,,0.01,Wunderground v.1.15,2013-08-23 03:40:00,
2013-08-22 23:41:00,63.4,61.9,29.82,SW,232,3.0,3.0,95,0.00,,,0.01,Wunderground v.1.15,2013-08-23 03:41:00,
2013-08-22 23:42:00,63.4,61.9,29.81,West,259,0.0,3.0,95,0.00,,,0.01,Wunderground v.1.15,2013-08-23 03:42:00,
2013-08-22 23:44:00,63.3,61.8,29.82,West,278,0.0,3.0,95,0.00,,,0.01,Wunderground v.1.15,2013-08-23 03:44:00,
2013-08-22 23:45:00,63.3,61.8,29.82,West,278,0.0,3.0,95,0.00,,,0.01,Wunderground v.1.15,2013-08-23 03:45:00,
2013-08-22 23:46:00,63.3,61.8,29.82,ENE,67,0.0,6.0,95,0.00,,,0.01,Wunderground v.1.15,2013-08-23 03:46:00,
2013-08-22 23:47:00,63.3,61.8,29.82,SE,128,0.0,6.0,95,0.00,,,0.01,Wunderground v.1.15,2013-08-23 03:47:00,
2013-08-22 23:50:00,63.2,61.7,29.82,WNW,293,0.0,1.0,95,0.00,,,0.01,Wunderground v.1.15,2013-08-23 03:50:00,
2013-08-22 23:52:00,63.2,61.7,29.82,SSE,165,0.0,2.0,95,0.00,,,0.01,Wunderground v.1.15,2013-08-23 03:52:00,
2013-08-22 23:53:00,63.2,61.7,29.82,South,189,1.0,2.0,95,0.00,,,0.01,Wunderground v.1.15,2013-08-23 03:53:00,
2013-08-22 23:55:00,63.2,61.7,29.82,SSW,213,0.0,2.0,95,0.00,,,0.01,Wunderground v.1.15,2013-08-23 03:55:00,
2013-08-22 23:56:00,63.2,61.7,29.82,SSW,213,0.0,2.0,95,0.00,,,0.01,Wunderground v.1.15,2013-08-23 03:56:00,
2013-08-22 23:57:00,63.2,62.0,29.82,SSW,202,0.0,2.0,96,0.00,,,0.01,Wunderground v.1.15,2013-08-23 03:57:00,
2013-08-22 23:58:00,63.2,61.7,29.82,SSW,202,0.0,2.0,95,0.00,,,0.01,Wunderground v.1.15,2013-08-23 03:58:00,